M I D A S
Marine Information and Data Acquisition System
Tripno 1556 of the Zeeleeuw from 2008-09-01 06:18:01 to 2008-09-01 11:25:58
Back to CruiseResearch ActivitiesStationsMapUnderway DataData graphs

EquipmentUnitsComment
TimeDGPSUTC
LatitudeDGPSDM.mWGS84
LongitudeDGPSDM.mWGS84
TemperatureSBE03/SBE38deg celciusITS90
ConductivitySBE21S/mITS90
SalinitySBE21 Practical Salinity Units
ChlorophylAChelsea fluorimeterg/lCalibrated in Aceton
Missing or incorrect values are displayed as -999
Sea surface data collected by the RV Zeeleeuw from 2008-09-01 06:21:17 to 2008-09-01 11:32:14
                                                                                    Next 1000 lines
Time Latitude Longitude Temperature Conductivity Salinity ChlorophylA
2008-09-01 06:21:26 51°13.624 2°56.043 20.3206 0.072462 0.362058 -1.209513
2008-09-01 06:21:32 51°13.625 2°56.04 20.3146 0.072462 0.362064 -1.209513
2008-09-01 06:21:36 51°13.626 2°56.038 20.3436 0.072462 0.362069 -1.209513
2008-09-01 06:21:41 51°13.627 2°56.034 20.326 0.072462 0.362075 -1.209513
2008-09-01 06:21:46 51°13.629 2°56.029 20.3371 0.072462 0.362081 -1.209513
2008-09-01 06:21:52 51°13.632 2°56.023 20.33 0.072462 0.362086 -1.209513
2008-09-01 06:21:57 51°13.635 2°56.017 20.3351 0.072462 0.362086 -1.209513
2008-09-01 06:22:01 51°13.636 2°56.012 20.3378 0.072462 0.362092 -1.209513
2008-09-01 06:22:06 51°13.638 2°56.005 20.3373 0.072462 0.362098 -1.209513
2008-09-01 06:22:11 51°13.64 2°55.998 20.3416 0.072462 0.362103 -1.209513
2008-09-01 06:22:17 51°13.643 2°55.988 20.3454 0.072462 0.362109 -1.209513
2008-09-01 06:22:21 51°13.644 2°55.982 20.3375 0.072462 0.362115 -1.209513
2008-09-01 06:22:27 51°13.647 2°55.972 20.3512 0.072462 0.362115 -1.209513
2008-09-01 06:22:31 51°13.649 2°55.965 20.3487 0.072462 0.36212 -1.209513
2008-09-01 06:22:37 51°13.652 2°55.955 20.3465 0.072462 0.36212 -1.209513
2008-09-01 06:22:42 51°13.654 2°55.946 20.3491 0.072462 0.362132 -1.209513
2008-09-01 06:22:47 51°13.656 2°55.937 20.3513 0.072462 0.362137 -1.209513
2008-09-01 06:22:52 51°13.659 2°55.927 20.3501 0.072462 0.362149 -1.209513
2008-09-01 06:22:56 51°13.662 2°55.92 20.3495 0.072462 0.362149 -1.209513
2008-09-01 06:23:02 51°13.665 2°55.908 20.3611 0.072462 0.362154 -1.209513
2008-09-01 06:23:07 51°13.668 2°55.898 20.3584 0.072462 0.362154 -1.209513
2008-09-01 06:23:12 51°13.671 2°55.889 20.3686 0.072462 0.362154 -1.209513
2008-09-01 06:23:16 51°13.673 2°55.883 20.3595 0.072462 0.362154 -1.209513
2008-09-01 06:23:22 51°13.677 2°55.872 20.361 0.072462 0.362149 -1.209513
2008-09-01 06:23:27 51°13.679 2°55.864 20.357 0.072462 0.362149 -1.209513
2008-09-01 06:23:32 51°13.682 2°55.856 20.3513 0.072462 0.362154 -1.209513
2008-09-01 06:23:37 51°13.685 2°55.848 20.3456 0.072462 0.362154 -1.209513
2008-09-01 06:23:41 51°13.686 2°55.841 20.3489 0.072462 0.36216 -1.209513
2008-09-01 06:23:47 51°13.69 2°55.832 20.3516 0.072462 0.362165 -1.209513
2008-09-01 06:23:52 51°13.693 2°55.824 20.3527 0.072462 0.362165 -1.209513
2008-09-01 06:23:57 51°13.695 2°55.817 20.3511 0.072462 0.362165 -1.209513
2008-09-01 06:24:01 51°13.697 2°55.811 20.3544 0.072462 0.362177 -1.209513
2008-09-01 06:24:06 51°13.699 2°55.803 20.3575 0.072462 0.362188 -1.209513
2008-09-01 06:24:12 51°13.701 2°55.795 20.3612 0.072462 0.362194 -1.209513
2008-09-01 06:24:17 51°13.702 2°55.788 20.359 0.072462 0.362205 -1.209513
2008-09-01 06:24:21 51°13.703 2°55.783 20.357 0.072462 0.362211 -1.209513
2008-09-01 06:24:26 51°13.704 2°55.777 20.3589 0.072462 0.362211 -1.209513
2008-09-01 06:24:31 51°13.706 2°55.771 20.3486 0.072462 0.362211 -1.209513
2008-09-01 06:24:37 51°13.707 2°55.764 20.3476 0.072462 0.362216 -1.209513
2008-09-01 06:24:41 51°13.707 2°55.759 20.3501 0.072462 0.362216 -1.209513
2008-09-01 06:24:46 51°13.708 2°55.753 20.3492 0.072462 0.362216 -1.209513
2008-09-01 06:24:51 51°13.709 2°55.748 20.3484 0.072462 0.362216 -1.209513
2008-09-01 06:24:57 51°13.709 2°55.742 20.3476 0.072462 0.362216 -1.209513
2008-09-01 06:25:01 51°13.71 2°55.738 20.3532 0.072462 0.362222 -1.209513
2008-09-01 06:25:06 51°13.71 2°55.734 20.351 0.072462 0.362222 -1.209513
2008-09-01 06:25:11 51°13.711 2°55.73 20.357 0.072462 0.362228 -1.209513
2008-09-01 06:25:17 51°13.711 2°55.726 20.3601 0.072462 0.362228 -1.209513
2008-09-01 06:25:21 51°13.712 2°55.724 20.3656 0.072462 0.362233 -1.209513
2008-09-01 06:25:26 51°13.712 2°55.723 20.3688 0.072462 0.362233 -1.209513
2008-09-01 06:25:31 51°13.713 2°55.723 20.3712 0.072462 0.362239 -1.209513
2008-09-01 06:25:36 51°13.714 2°55.724 20.3689 0.072462 0.362245 -1.209513
2008-09-01 06:25:41 51°13.716 2°55.725 20.357 0.072462 0.362245 -1.209513
2008-09-01 06:25:46 51°13.717 2°55.727 20.3298 0.072462 0.362256 -1.209513
2008-09-01 06:25:51 51°13.718 2°55.728 20.3299 0.072462 0.362262 -1.209513
2008-09-01 06:25:57 51°13.718 2°55.728 20.3257 0.072462 0.362262 -1.209513
2008-09-01 06:26:01 51°13.718 2°55.728 20.3476 0.072462 0.362273 -1.209513
2008-09-01 06:26:06 51°13.718 2°55.727 20.3148 0.072462 0.362279 -1.209513
2008-09-01 06:26:12 51°13.717 2°55.724 20.3545 0.072462 0.362284 -1.209513
2008-09-01 06:26:17 51°13.716 2°55.722 20.3242 0.072462 0.36229 -1.209513
2008-09-01 06:26:21 51°13.715 2°55.72 20.3533 0.072462 0.36229 -1.209513
2008-09-01 06:26:26 51°13.713 2°55.717 20.3523 0.072462 0.36229 -1.209513
2008-09-01 06:26:32 51°13.712 2°55.714 20.3492 0.072462 0.362296 -1.209513
2008-09-01 06:26:37 51°13.71 2°55.711 20.3491 0.072462 0.362301 -1.209513
2008-09-01 06:26:42 51°13.71 2°55.709 20.3594 0.072462 0.362307 -1.209513
2008-09-01 06:26:46 51°13.71 2°55.709 20.356 0.072462 0.362318 -1.209513
2008-09-01 06:26:52 51°13.71 2°55.708 20.3614 0.072462 0.362318 -1.209513
2008-09-01 06:26:57 51°13.711 2°55.707 20.3694 0.072462 0.362318 -1.209513
2008-09-01 06:27:02 51°13.713 2°55.707 20.3726 0.072462 0.362324 -1.209513
2008-09-01 06:27:07 51°13.716 2°55.707 20.3739 0.072462 0.36233 -1.209513
2008-09-01 06:27:11 51°13.718 2°55.707 20.377 0.072462 0.362335 -1.209513
2008-09-01 06:27:17 51°13.723 2°55.706 20.3777 0.072462 0.362341 -1.209513
2008-09-01 06:27:21 51°13.727 2°55.704 20.3772 0.072462 0.362352 -1.209513
2008-09-01 06:27:27 51°13.734 2°55.701 20.3731 0.072462 0.362352 -1.209513
2008-09-01 06:27:31 51°13.738 2°55.698 20.3616 0.072462 0.362358 -1.209513
2008-09-01 06:27:37 51°13.747 2°55.693 20.3495 0.072462 0.362358 -1.209513
2008-09-01 06:27:41 51°13.753 2°55.689 20.3363 0.072462 0.362358 -1.209513
2008-09-01 06:27:46 51°13.761 2°55.683 20.3216 0.072462 0.362364 -1.209513
2008-09-01 06:27:51 51°13.769 2°55.676 20.3164 0.072462 0.362369 -1.209513
2008-09-01 06:27:56 51°13.778 2°55.671 20.3242 0.072462 0.362369 -1.209513
2008-09-01 06:28:01 51°13.787 2°55.664 20.3233 0.072462 0.362375 -1.209513
2008-09-01 06:28:06 51°13.797 2°55.657 20.3207 0.072462 0.362381 -1.209513
2008-09-01 06:28:12 51°13.808 2°55.648 20.3148 0.072462 0.362386 -1.209513
2008-09-01 06:28:17 51°13.818 2°55.641 20.3178 0.072462 0.362392 -1.209513
2008-09-01 06:28:21 51°13.826 2°55.636 20.3246 0.072462 0.362398 -1.209513
2008-09-01 06:28:26 51°13.837 2°55.629 20.3368 0.072462 0.362398 -1.209513
2008-09-01 06:28:32 51°13.85 2°55.621 20.3412 0.072462 0.362403 -1.209513
2008-09-01 06:28:37 51°13.861 2°55.613 20.3427 0.072462 0.362403 -1.209513
2008-09-01 06:28:41 51°13.87 2°55.607 20.3275 0.072462 0.362403 -1.209513
2008-09-01 06:28:46 51°13.882 2°55.599 20.3399 0.072462 0.362398 -1.209513
2008-09-01 06:28:52 51°13.895 2°55.59 20.3472 0.072462 0.362409 -1.209513
2008-09-01 06:28:57 51°13.906 2°55.581 20.355 0.072462 0.362409 -1.209513
2008-09-01 06:29:01 51°13.915 2°55.575 20.3287 0.072462 0.362415 -1.209513
2008-09-01 06:29:06 51°13.926 2°55.568 20.3302 0.072462 0.36242 -1.209513
2008-09-01 06:29:11 51°13.939 2°55.559 20.3311 0.072462 0.362432 -1.209513
2008-09-01 06:29:16 51°13.95 2°55.551 20.3556 0.072462 0.362443 -1.209513
2008-09-01 06:29:21 51°13.961 2°55.543 20.3423 0.072462 0.362454 -1.209513
2008-09-01 06:29:26 51°13.973 2°55.536 20.3471 0.072462 0.362454 -1.209513
2008-09-01 06:29:31 51°13.984 2°55.528 20.3461 0.072462 0.362466 -1.209513
2008-09-01 06:29:36 51°13.996 2°55.52 20.3524 0.072462 0.362466 -1.209513
2008-09-01 06:29:41 51°14.008 2°55.512 20.3552 0.072462 0.362477 -1.209513
2008-09-01 06:29:46 51°14.019 2°55.505 20.3555 0.072462 0.362488 -1.209513
2008-09-01 06:29:50 51°14.028 2°55.498 20.339 0.072462 0.362488 -1.209513
2008-09-01 06:29:56 51°14.042 2°55.488 20.3565 0.072462 0.362488 -1.209513
2008-09-01 06:30:01 51°14.053 2°55.479 20.3635 0.072462 0.362488 -1.209513
2008-09-01 06:30:05 51°14.062 2°55.472 20.3582 0.072462 0.3625 -1.209513
2008-09-01 06:30:10 51°14.073 2°55.463 20.3417 0.072462 0.362505 -1.209513
2008-09-01 06:30:15 51°14.084 2°55.454 20.3511 0.072462 0.362505 -1.209513
2008-09-01 06:30:20 51°14.094 2°55.445 20.3681 0.072462 0.362517 -1.209513
2008-09-01 06:30:25 51°14.105 2°55.436 20.3648 0.072462 0.362517 -1.209513
2008-09-01 06:30:30 51°14.116 2°55.426 20.3489 0.072462 0.362522 -1.209513
2008-09-01 06:30:35 51°14.127 2°55.416 20.3513 0.072462 0.362522 -1.209513
2008-09-01 06:30:40 51°14.137 2°55.406 20.3479 0.072462 0.362528 -1.209513
2008-09-01 06:30:45 51°14.148 2°55.396 20.3628 0.072462 0.362534 -1.209513
2008-09-01 06:30:50 51°14.159 2°55.386 20.3673 0.072462 0.362545 -1.209513
2008-09-01 06:30:55 51°14.169 2°55.375 20.3557 0.072462 0.362545 -1.209513
2008-09-01 06:31:00 51°14.18 2°55.365 20.3768 0.072462 0.362551 -1.209513
2008-09-01 06:31:05 51°14.19 2°55.354 20.366 0.072462 0.362562 -1.209513
2008-09-01 06:31:09 51°14.198 2°55.345 20.3765 0.072462 0.362568 -1.209513
2008-09-01 06:31:14 51°14.208 2°55.333 20.3632 0.072462 0.362573 -1.209513
2008-09-01 06:31:20 51°14.22 2°55.319 20.3694 0.072462 0.362579 -1.209513
2008-09-01 06:31:25 51°14.23 2°55.306 20.3711 0.072462 0.362579 -1.209513
2008-09-01 06:31:29 51°14.238 2°55.296 20.3651 0.072462 0.36259 -1.209513
2008-09-01 06:31:34 51°14.247 2°55.282 20.3738 0.072462 0.362596 -1.209513
2008-09-01 06:31:39 51°14.257 2°55.268 20.3697 0.072462 0.362602 -1.209513
2008-09-01 06:31:44 51°14.267 2°55.253 20.3602 0.072462 0.362602 -1.209513
2008-09-01 06:31:49 51°14.276 2°55.238 20.3431 0.072462 0.362607 -1.209513
2008-09-01 06:31:54 51°14.285 2°55.223 20.3425 0.072462 0.362607 -1.209513
2008-09-01 06:31:59 51°14.295 2°55.207 20.3363 0.072462 0.362613 -1.209513
2008-09-01 06:32:04 51°14.304 2°55.191 20.3347 0.072462 0.362619 -1.209513
2008-09-01 06:32:09 51°14.314 2°55.174 20.3386 0.072462 0.362624 -1.209513
2008-09-01 06:32:14 51°14.323 2°55.157 20.3253 0.072462 0.36263 -1.209513
2008-09-01 06:32:19 51°14.332 2°55.139 20.3576 0.072462 0.362636 -1.209513
2008-09-01 06:32:24 51°14.341 2°55.122 20.3455 0.072462 0.362636 -1.209513
2008-09-01 06:32:29 51°14.35 2°55.104 20.3424 0.072462 0.362641 -1.209513
2008-09-01 06:32:33 51°14.358 2°55.09 20.343 0.072462 0.362647 -1.209513
2008-09-01 06:32:38 51°14.367 2°55.072 20.361 0.072462 0.362653 -1.209513
2008-09-01 06:32:44 51°14.377 2°55.05 20.3503 0.072462 0.362664 -1.209513
2008-09-01 06:32:49 51°14.386 2°55.032 20.3514 0.072462 0.36267 -1.209513
2008-09-01 06:32:53 51°14.392 2°55.016 20.3582 0.072462 0.36267 -1.209513
2008-09-01 06:32:58 51°14.4 2°54.997 20.3109 0.072462 0.362676 -1.209513
2008-09-01 06:33:03 51°14.407 2°54.977 20.324 0.072462 0.362687 -1.209513
2008-09-01 06:33:08 51°14.413 2°54.957 20.3289 0.072462 0.362693 -1.209513
2008-09-01 06:33:13 51°14.418 2°54.936 20.2943 0.072462 0.362698 -1.209513
2008-09-01 06:33:18 51°14.422 2°54.915 20.2999 0.072462 0.362704 -1.209513
2008-09-01 06:33:23 51°14.425 2°54.893 20.2885 0.072462 0.362704 -1.209513
2008-09-01 06:33:28 51°14.427 2°54.871 20.3009 0.072462 0.362704 -1.209513
2008-09-01 06:33:33 51°14.429 2°54.848 20.2785 0.072462 0.36271 -1.209513
2008-09-01 06:33:38 51°14.43 2°54.826 20.3115 0.072462 0.362715 -1.209513
2008-09-01 06:33:43 51°14.43 2°54.803 20.2939 0.072462 0.362721 -1.209513
2008-09-01 06:33:48 51°14.43 2°54.78 20.3062 0.072462 0.362727 -1.209513
2008-09-01 06:33:53 51°14.429 2°54.757 20.2765 0.072462 0.362727 -1.209513
2008-09-01 06:33:58 51°14.428 2°54.734 20.2854 0.072462 0.362732 -1.209513
2008-09-01 06:34:03 51°14.425 2°54.711 20.2972 0.072462 0.362744 -1.209513
2008-09-01 06:34:08 51°14.422 2°54.688 20.3024 0.072462 0.362744 -1.209513
2008-09-01 06:34:13 51°14.419 2°54.665 20.2717 0.072462 0.362755 -1.209513
2008-09-01 06:34:18 51°14.414 2°54.642 20.2979 0.072462 0.362755 -1.209513
2008-09-01 06:34:23 51°14.41 2°54.62 20.2932 0.072462 0.362755 -1.209513
2008-09-01 06:34:28 51°14.405 2°54.598 20.2862 0.072462 0.362761 -1.209513
2008-09-01 06:34:33 51°14.4 2°54.575 20.2943 0.072462 0.362761 -1.209513
2008-09-01 06:34:38 51°14.394 2°54.553 20.2801 0.072462 0.362766 -1.209513
2008-09-01 06:34:43 51°14.388 2°54.531 20.2901 0.072462 0.362772 -1.209513
2008-09-01 06:34:48 51°14.382 2°54.508 20.2677 0.072462 0.362778 -1.209513
2008-09-01 06:34:53 51°14.376 2°54.487 20.2905 0.072462 0.362778 -1.209513
2008-09-01 06:34:58 51°14.369 2°54.465 20.2842 0.072462 0.362783 -1.209513
2008-09-01 06:35:03 51°14.362 2°54.444 20.268 0.072462 0.362783 -1.209513
2008-09-01 06:35:08 51°14.355 2°54.423 20.2903 0.072462 0.362795 -1.209513
2008-09-01 06:35:13 51°14.348 2°54.402 20.2695 0.072359 0.36227 -1.209513
2008-09-01 06:35:18 51°14.34 2°54.381 20.2768 0.072462 0.3628 -1.209513
2008-09-01 06:35:22 51°14.335 2°54.364 20.2896 0.072462 0.3628 -1.209513
2008-09-01 06:35:28 51°14.326 2°54.338 20.2695 0.072462 0.362812 -1.209513
2008-09-01 06:35:33 51°14.318 2°54.317 20.2785 0.072462 0.362818 -1.209513
2008-09-01 06:35:38 51°14.311 2°54.296 20.2639 0.072462 0.362829 -1.209513
2008-09-01 06:35:42 51°14.304 2°54.279 20.2832 0.072359 0.362298 -1.209513
2008-09-01 06:35:47 51°14.297 2°54.257 20.2528 0.072359 0.362304 -1.209513
2008-09-01 06:35:53 51°14.288 2°54.232 20.2719 0.072359 0.362304 -1.209513
2008-09-01 06:35:58 51°14.281 2°54.209 20.2622 0.072359 0.362309 -1.209513
2008-09-01 06:36:02 51°14.275 2°54.192 20.273 0.072462 0.36284 -1.209513
2008-09-01 06:36:07 51°14.268 2°54.169 20.2609 0.072359 0.362315 -1.209513
2008-09-01 06:36:13 51°14.259 2°54.143 20.2575 0.072359 0.362321 -1.209513
2008-09-01 06:36:18 51°14.251 2°54.121 20.2726 0.072359 0.362326 -1.209513
2008-09-01 06:36:23 51°14.242 2°54.099 20.2832 0.072359 0.362326 -1.209513
2008-09-01 06:36:28 51°14.235 2°54.076 20.2803 0.072359 0.362332 -1.209513
2008-09-01 06:36:33 51°14.227 2°54.054 20.2536 0.072359 0.362338 -1.209513
2008-09-01 06:36:38 51°14.219 2°54.032 20.2765 0.072359 0.362343 -1.209513
2008-09-01 06:36:43 51°14.212 2°54.009 20.2808 0.072359 0.362349 -1.209513
2008-09-01 06:36:48 51°14.204 2°53.987 20.2745 0.072359 0.362349 -1.209513
2008-09-01 06:36:53 51°14.196 2°53.964 20.278 0.072359 0.362349 -1.209513
2008-09-01 06:36:58 51°14.188 2°53.941 20.2768 0.072359 0.362355 -1.209513
2008-09-01 06:37:03 51°14.18 2°53.918 20.2662 0.072359 0.362361 -1.209513
2008-09-01 06:37:08 51°14.172 2°53.895 20.2671 0.072359 0.362366 -1.209513
2008-09-01 06:37:13 51°14.164 2°53.873 20.2803 0.072359 0.362372 -1.209513
2008-09-01 06:37:18 51°14.156 2°53.85 20.27 0.072359 0.362372 -1.209513
2008-09-01 06:37:23 51°14.147 2°53.828 20.2788 0.072359 0.362378 -1.209513
2008-09-01 06:37:28 51°14.138 2°53.806 20.2865 0.072359 0.362378 -1.209513
2008-09-01 06:37:33 51°14.13 2°53.784 20.2743 0.072359 0.362383 -1.209513
2008-09-01 06:37:38 51°14.121 2°53.761 20.2811 0.072359 0.362389 -1.209513
2008-09-01 06:37:43 51°14.114 2°53.739 20.2744 0.072359 0.362395 -1.209513
2008-09-01 06:37:48 51°14.105 2°53.717 20.2772 0.072359 0.3624 -1.209513
2008-09-01 06:37:53 51°14.097 2°53.695 20.2611 0.072359 0.3624 -1.209513
2008-09-01 06:37:58 51°14.088 2°53.673 20.2744 0.072359 0.362406 -1.209513
2008-09-01 06:38:03 51°14.079 2°53.652 20.2631 0.072359 0.362417 -1.209513
2008-09-01 06:38:08 51°14.071 2°53.63 20.2769 0.072359 0.362417 -1.209513
2008-09-01 06:38:13 51°14.063 2°53.608 20.2785 0.072359 0.362423 -1.209513
2008-09-01 06:38:18 51°14.055 2°53.586 20.2718 0.072359 0.362434 -1.209513
2008-09-01 06:38:23 51°14.047 2°53.564 20.259 0.072359 0.362434 -1.209513
2008-09-01 06:38:28 51°14.039 2°53.542 20.2736 0.072359 0.36244 -1.209513
2008-09-01 06:38:33 51°14.031 2°53.519 20.2755 0.072359 0.362446 -1.209513
2008-09-01 06:38:38 51°14.022 2°53.498 20.2803 0.072359 0.362451 -1.209513
2008-09-01 06:38:43 51°14.014 2°53.475 20.2824 0.072359 0.362457 -1.209513
2008-09-01 06:38:48 51°14.006 2°53.453 20.2784 0.072359 0.362463 -1.209513
2008-09-01 06:38:53 51°13.998 2°53.43 20.2707 0.072359 0.362463 -1.209513
2008-09-01 06:38:58 51°13.99 2°53.408 20.2848 0.072359 0.362468 -1.209513
2008-09-01 06:39:03 51°13.982 2°53.386 20.2868 0.072359 0.362468 -1.209513
2008-09-01 06:39:08 51°13.973 2°53.364 20.2819 0.072359 0.36248 -1.209513
2008-09-01 06:39:13 51°13.965 2°53.342 20.2902 0.072359 0.36248 -1.174688
2008-09-01 06:39:18 51°13.958 2°53.319 20.2772 0.072359 0.362491 -1.209513
2008-09-01 06:39:23 51°13.949 2°53.297 20.2675 0.072359 0.362491 -1.209513
2008-09-01 06:39:28 51°13.941 2°53.276 20.2791 0.072359 0.362497 -1.209513
2008-09-01 06:39:33 51°13.933 2°53.254 20.2753 0.072359 0.362497 -1.209513
2008-09-01 06:39:37 51°13.926 2°53.236 20.2843 0.072359 0.362514 -1.209513
2008-09-01 06:39:43 51°13.916 2°53.21 20.2872 0.072359 0.362514 -1.209513
2008-09-01 06:39:48 51°13.908 2°53.188 20.2712 0.072359 0.362525 -1.209513
2008-09-01 06:39:53 51°13.9 2°53.166 20.2772 0.072359 0.362525 -1.209513
2008-09-01 06:39:57 51°13.893 2°53.149 20.2837 0.072359 0.362525 -1.174688
2008-09-01 06:40:02 51°13.885 2°53.127 20.2728 0.072359 0.362537 -1.209513
2008-09-01 06:40:07 51°13.877 2°53.105 20.2826 0.072359 0.362537 -1.209513
2008-09-01 06:40:13 51°13.867 2°53.078 20.2891 0.072359 0.362542 -1.209513
2008-09-01 06:40:17 51°13.86 2°53.061 20.2774 0.072359 0.362548 -1.209513
2008-09-01 06:40:22 51°13.852 2°53.038 20.2822 0.072359 0.362548 -1.209513
2008-09-01 06:40:27 51°13.845 2°53.016 20.2801 0.072359 0.362554 -1.209513
2008-09-01 06:40:33 51°13.834 2°52.99 20.2906 0.072359 0.362559 -1.209513
2008-09-01 06:40:37 51°13.828 2°52.972 20.2896 0.072359 0.362565 -1.209513
2008-09-01 06:40:42 51°13.82 2°52.95 20.2933 0.072359 0.362565 -1.209513
2008-09-01 06:40:47 51°13.812 2°52.928 20.2817 0.072359 0.362565 -1.209513
2008-09-01 06:40:53 51°13.802 2°52.902 20.2949 0.072359 0.362571 -1.209513
2008-09-01 06:40:57 51°13.796 2°52.884 20.2792 0.072359 0.362576 -1.209513
2008-09-01 06:41:02 51°13.787 2°52.862 20.2903 0.072359 0.362576 -1.209513
2008-09-01 06:41:07 51°13.779 2°52.84 20.2989 0.072359 0.362588 -1.209513
2008-09-01 06:41:12 51°13.771 2°52.818 20.2809 0.072359 0.362588 -1.209513
2008-09-01 06:41:17 51°13.763 2°52.796 20.2859 0.072359 0.362593 -1.209513
2008-09-01 06:41:22 51°13.755 2°52.773 20.2842 0.072359 0.362593 -1.209513
2008-09-01 06:41:27 51°13.747 2°52.751 20.2974 0.072359 0.362605 -1.209513
2008-09-01 06:41:32 51°13.739 2°52.728 20.2838 0.072359 0.36261 -1.209513
2008-09-01 06:41:37 51°13.73 2°52.707 20.2831 0.072359 0.36261 -1.209513
2008-09-01 06:41:42 51°13.722 2°52.685 20.2917 0.072359 0.362622 -1.209513
2008-09-01 06:41:47 51°13.714 2°52.662 20.2924 0.072359 0.362622 -1.209513
2008-09-01 06:41:52 51°13.706 2°52.64 20.2894 0.072359 0.362622 -1.209513
2008-09-01 06:41:57 51°13.698 2°52.618 20.2889 0.072359 0.362628 -1.209513
2008-09-01 06:42:02 51°13.69 2°52.595 20.2958 0.072359 0.362633 -1.209513
2008-09-01 06:42:07 51°13.682 2°52.573 20.297 0.072359 0.362639 -1.209513
2008-09-01 06:42:12 51°13.674 2°52.55 20.2956 0.072359 0.362645 -1.209513
2008-09-01 06:42:17 51°13.666 2°52.529 20.2982 0.072359 0.36265 -1.209513
2008-09-01 06:42:22 51°13.657 2°52.507 20.293 0.072359 0.36265 -1.209513
2008-09-01 06:42:27 51°13.648 2°52.485 20.2978 0.072359 0.362656 -1.209513
2008-09-01 06:42:33 51°13.639 2°52.459 20.2997 0.072359 0.362656 -1.209513
2008-09-01 06:42:37 51°13.633 2°52.441 20.2935 0.072359 0.362667 -1.209513
2008-09-01 06:42:42 51°13.624 2°52.42 20.3052 0.072359 0.362679 -1.209513
2008-09-01 06:42:47 51°13.616 2°52.398 20.2984 0.072359 0.362673 -1.209513
2008-09-01 06:42:53 51°13.606 2°52.371 20.3023 0.072359 0.362673 -1.209513
2008-09-01 06:42:57 51°13.6 2°52.354 20.2993 0.072359 0.362684 -1.209513
2008-09-01 06:43:02 51°13.591 2°52.332 20.2917 0.072359 0.362684 -1.209513
2008-09-01 06:43:07 51°13.583 2°52.31 20.3006 0.072359 0.362696 -1.209513
2008-09-01 06:43:13 51°13.573 2°52.283 20.2931 0.072359 0.362696 -1.209513
2008-09-01 06:43:17 51°13.566 2°52.265 20.3068 0.072359 0.362701 -1.209513
2008-09-01 06:43:22 51°13.558 2°52.243 20.2964 0.072359 0.362701 -1.209513
2008-09-01 06:43:27 51°13.55 2°52.22 20.2926 0.072359 0.362707 -1.209513
2008-09-01 06:43:32 51°13.541 2°52.198 20.3071 0.072359 0.362707 -1.209513
2008-09-01 06:43:37 51°13.533 2°52.175 20.3092 0.072359 0.362713 -1.174688
2008-09-01 06:43:42 51°13.525 2°52.152 20.304 0.072359 0.362719 -1.209513
2008-09-01 06:43:47 51°13.517 2°52.129 20.3036 0.072359 0.362724 -1.209513
2008-09-01 06:43:53 51°13.507 2°52.101 20.302 0.072359 0.362724 -1.209513
2008-09-01 06:43:57 51°13.5 2°52.083 20.3079 0.072359 0.36273 -1.209513
2008-09-01 06:44:02 51°13.491 2°52.059 20.3078 0.072359 0.362741 -1.209513
2008-09-01 06:44:07 51°13.483 2°52.036 20.3018 0.072359 0.362747 -1.209513
2008-09-01 06:44:13 51°13.472 2°52.008 20.3134 0.072359 0.362753 -1.209513
2008-09-01 06:44:17 51°13.465 2°51.99 20.313 0.072359 0.362753 -1.209513
2008-09-01 06:44:22 51°13.456 2°51.967 20.3056 0.072359 0.362753 -1.209513
2008-09-01 06:44:27 51°13.447 2°51.944 20.3012 0.072359 0.362758 -1.209513
2008-09-01 06:44:33 51°13.436 2°51.916 20.3084 0.072359 0.362764 -1.209513
2008-09-01 06:44:37 51°13.429 2°51.897 20.3034 0.072359 0.36277 -1.209513
2008-09-01 06:44:42 51°13.421 2°51.874 20.3177 0.072359 0.362781 -1.209513
2008-09-01 06:44:47 51°13.412 2°51.851 20.3039 0.072359 0.362775 -1.174688
2008-09-01 06:44:53 51°13.401 2°51.824 20.3123 0.072359 0.362775 -1.174688
2008-09-01 06:44:57 51°13.395 2°51.805 20.3146 0.072359 0.362775 -1.209513
2008-09-01 06:45:02 51°13.386 2°51.782 20.3152 0.072359 0.362781 -1.209513
2008-09-01 06:45:07 51°13.377 2°51.759 20.3121 0.072359 0.362781 -1.209513
2008-09-01 06:45:13 51°13.366 2°51.731 20.3223 0.072359 0.362793 -1.209513
2008-09-01 06:45:17 51°13.359 2°51.712 20.3077 0.072359 0.362798 -1.209513
2008-09-01 06:45:22 51°13.35 2°51.689 20.312 0.072359 0.362798 -1.209513
2008-09-01 06:45:27 51°13.342 2°51.665 20.3119 0.072359 0.36281 -1.209513
2008-09-01 06:45:32 51°13.333 2°51.642 20.3185 0.072359 0.362815 -1.209513
2008-09-01 06:45:37 51°13.324 2°51.618 20.3093 0.072359 0.362821 -1.209513
2008-09-01 06:45:42 51°13.315 2°51.596 20.3206 0.072359 0.362832 -1.209513
2008-09-01 06:45:47 51°13.306 2°51.573 20.3224 0.072359 0.362832 -1.209513
2008-09-01 06:45:53 51°13.296 2°51.544 20.3217 0.072359 0.362832 -1.209513
2008-09-01 06:45:57 51°13.289 2°51.526 20.3217 0.072359 0.362832 -1.209513
2008-09-01 06:46:02 51°13.28 2°51.502 20.3257 0.072359 0.362838 -1.209513
2008-09-01 06:46:07 51°13.272 2°51.478 20.3184 0.072359 0.362844 -1.209513
2008-09-01 06:46:13 51°13.262 2°51.45 20.3191 0.072359 0.362849 -1.209513
2008-09-01 06:46:17 51°13.255 2°51.431 20.3295 0.072359 0.362849 -1.209513
2008-09-01 06:46:22 51°13.247 2°51.406 20.3253 0.072359 0.362855 -1.209513
2008-09-01 06:46:27 51°13.239 2°51.383 20.3218 0.072359 0.362855 -1.209513
2008-09-01 06:46:33 51°13.229 2°51.354 20.3202 0.072359 0.362861 -1.209513
2008-09-01 06:46:37 51°13.222 2°51.336 20.3175 0.072359 0.362867 -1.209513
2008-09-01 06:46:42 51°13.212 2°51.313 20.3298 0.072359 0.362867 -1.209513
2008-09-01 06:46:47 51°13.203 2°51.289 20.3203 0.072359 0.362872 -1.209513
2008-09-01 06:46:53 51°13.193 2°51.26 20.3309 0.072359 0.362872 -1.209513
2008-09-01 06:46:57 51°13.187 2°51.241 20.3305 0.072359 0.362872 -1.209513
2008-09-01 06:47:02 51°13.179 2°51.217 20.3285 0.072359 0.362884 -1.209513
2008-09-01 06:47:07 51°13.17 2°51.194 20.3345 0.072359 0.362884 -1.209513
2008-09-01 06:47:13 51°13.16 2°51.165 20.3308 0.072359 0.362889 -1.209513
2008-09-01 06:47:17 51°13.152 2°51.146 20.328 0.072359 0.362901 -1.209513
2008-09-01 06:47:22 51°13.144 2°51.122 20.3346 0.072359 0.362901 -1.209513
2008-09-01 06:47:27 51°13.136 2°51.098 20.3365 0.072359 0.362906 -1.209513
2008-09-01 06:47:33 51°13.125 2°51.069 20.326 0.072359 0.362912 -1.209513
2008-09-01 06:47:37 51°13.118 2°51.051 20.3375 0.072359 0.362918 -1.209513
2008-09-01 06:47:42 51°13.109 2°51.028 20.3399 0.072359 0.362924 -1.209513
2008-09-01 06:47:47 51°13.101 2°51.004 20.3302 0.072359 0.362924 -1.209513
2008-09-01 06:47:52 51°13.092 2°50.98 20.341 0.072359 0.362924 -1.209513
2008-09-01 06:47:57 51°13.083 2°50.956 20.3309 0.072359 0.362935 -1.209513
2008-09-01 06:48:02 51°13.075 2°50.933 20.3365 0.072359 0.362935 -1.209513
2008-09-01 06:48:07 51°13.066 2°50.91 20.338 0.072359 0.362941 -1.209513
2008-09-01 06:48:12 51°13.058 2°50.886 20.3385 0.072359 0.362941 -1.209513
2008-09-01 06:48:17 51°13.049 2°50.862 20.334 0.072359 0.362941 -1.209513
2008-09-01 06:48:22 51°13.041 2°50.839 20.3372 0.072359 0.362941 -1.209513
2008-09-01 06:48:27 51°13.032 2°50.815 20.3383 0.072359 0.362952 -1.209513
2008-09-01 06:48:32 51°13.023 2°50.792 20.3355 0.072359 0.362946 -1.209513
2008-09-01 06:48:37 51°13.015 2°50.768 20.3385 0.072359 0.362952 -1.209513
2008-09-01 06:48:42 51°13.006 2°50.745 20.3438 0.072359 0.362958 -1.209513
2008-09-01 06:48:47 51°12.997 2°50.721 20.346 0.072359 0.362958 -1.209513
2008-09-01 06:48:52 51°12.989 2°50.697 20.3456 0.072359 0.362958 -1.209513
2008-09-01 06:48:57 51°12.98 2°50.673 20.3346 0.072359 0.362963 -1.209513
2008-09-01 06:49:02 51°12.971 2°50.65 20.3526 0.072359 0.362963 -1.209513
2008-09-01 06:49:07 51°12.962 2°50.626 20.3402 0.072359 0.362981 -1.209513
2008-09-01 06:49:13 51°12.951 2°50.598 20.3494 0.072359 0.362981 -1.209513
2008-09-01 06:49:17 51°12.945 2°50.579 20.3412 0.072359 0.362986 -1.209513
2008-09-01 06:49:22 51°12.936 2°50.555 20.3428 0.072359 0.362986 -1.209513
2008-09-01 06:49:27 51°12.927 2°50.531 20.3474 0.072359 0.362992 -1.209513
2008-09-01 06:49:33 51°12.917 2°50.503 20.3423 0.072359 0.363003 -1.209513
2008-09-01 06:49:37 51°12.91 2°50.485 20.3507 0.072359 0.363009 -1.209513
2008-09-01 06:49:42 51°12.9 2°50.461 20.3445 0.072359 0.363003 -1.209513
2008-09-01 06:49:47 51°12.892 2°50.438 20.3569 0.072359 0.363009 -1.209513
2008-09-01 06:49:53 51°12.882 2°50.409 20.3518 0.072359 0.363009 -1.209513
2008-09-01 06:49:57 51°12.875 2°50.39 20.3475 0.072359 0.363009 -1.209513
2008-09-01 06:50:02 51°12.867 2°50.367 20.3595 0.072359 0.36302 -1.209513
2008-09-01 06:50:07 51°12.858 2°50.343 20.3497 0.072359 0.363026 -1.209513
2008-09-01 06:50:13 51°12.847 2°50.315 20.3574 0.072359 0.363032 -1.209513
2008-09-01 06:50:17 51°12.84 2°50.296 20.3552 0.072359 0.363032 -1.209513
2008-09-01 06:50:22 51°12.831 2°50.273 20.356 0.072359 0.363032 -1.209513
2008-09-01 06:50:27 51°12.823 2°50.249 20.3494 0.072359 0.363038 -1.209513
2008-09-01 06:50:33 51°12.812 2°50.222 20.3557 0.072359 0.363043 -1.209513
2008-09-01 06:50:37 51°12.805 2°50.203 20.358 0.072359 0.363049 -1.209513
2008-09-01 06:50:42 51°12.797 2°50.179 20.3622 0.072359 0.363049 -1.209513
2008-09-01 06:50:47 51°12.789 2°50.154 20.3566 0.072359 0.36306 -1.209513
2008-09-01 06:50:53 51°12.779 2°50.126 20.3655 0.072359 0.36306 -1.209513
2008-09-01 06:50:57 51°12.772 2°50.107 20.3582 0.072359 0.36306 -1.209513
2008-09-01 06:51:02 51°12.764 2°50.083 20.3592 0.072359 0.363072 -1.209513
2008-09-01 06:51:07 51°12.756 2°50.058 20.367 0.072359 0.363072 -1.209513
2008-09-01 06:51:13 51°12.747 2°50.029 20.3645 0.072359 0.363077 -1.209513
2008-09-01 06:51:17 51°12.741 2°50.01 20.3673 0.072359 0.363089 -1.209513
2008-09-01 06:51:22 51°12.733 2°49.986 20.3589 0.072359 0.363089 -1.209513
2008-09-01 06:51:28 51°12.724 2°49.956 20.3639 0.072359 0.363083 -1.174688
2008-09-01 06:51:33 51°12.717 2°49.932 20.3667 0.072256 0.362557 -1.209513
2008-09-01 06:51:37 51°12.711 2°49.912 20.3612 0.072359 0.363095 -1.209513
2008-09-01 06:51:42 51°12.704 2°49.887 20.3645 0.072359 0.3631 -1.209513
2008-09-01 06:51:47 51°12.697 2°49.862 20.3617 0.072359 0.3631 -1.209513
2008-09-01 06:51:53 51°12.689 2°49.832 20.3635 0.072359 0.3631 -1.209513
2008-09-01 06:51:57 51°12.683 2°49.812 20.3739 0.072256 0.362568 -1.209513
2008-09-01 06:52:02 51°12.677 2°49.787 20.3699 0.072359 0.363112 -1.209513
2008-09-01 06:52:07 51°12.67 2°49.762 20.3703 0.072359 0.363112 -1.209513
2008-09-01 06:52:13 51°12.662 2°49.731 20.3697 0.072359 0.363117 -1.209513
2008-09-01 06:52:17 51°12.657 2°49.71 20.3735 0.072359 0.363129 -1.174688
2008-09-01 06:52:22 51°12.651 2°49.685 20.3776 0.072359 0.363129 -1.174688
2008-09-01 06:52:27 51°12.645 2°49.659 20.3753 0.072359 0.363129 -1.209513
2008-09-01 06:52:32 51°12.638 2°49.633 20.368 0.072256 0.362602 -1.209513
2008-09-01 06:52:37 51°12.631 2°49.608 20.3765 0.072256 0.362608 -1.209513
2008-09-01 06:52:42 51°12.624 2°49.582 20.3722 0.072256 0.362608 -1.209513
2008-09-01 06:52:47 51°12.618 2°49.557 20.3717 0.072256 0.362614 -1.174688
2008-09-01 06:52:53 51°12.609 2°49.526 20.38 0.072256 0.362614 -1.174688
2008-09-01 06:52:57 51°12.604 2°49.506 20.3821 0.072256 0.36262 -1.209513
2008-09-01 06:53:02 51°12.597 2°49.48 20.3811 0.072256 0.36262 -1.174688
2008-09-01 06:53:07 51°12.591 2°49.455 20.3806 0.072256 0.362631 -1.209513
2008-09-01 06:53:13 51°12.582 2°49.425 20.3742 0.072256 0.362637 -1.209513
2008-09-01 06:53:17 51°12.577 2°49.404 20.374 0.072256 0.362637 -1.209513
2008-09-01 06:53:22 51°12.57 2°49.379 20.3871 0.072256 0.362637 -1.209513
2008-09-01 06:53:27 51°12.563 2°49.353 20.3764 0.072256 0.362648 -1.209513
2008-09-01 06:53:33 51°12.555 2°49.323 20.3843 0.072256 0.362648 -1.209513
2008-09-01 06:53:37 51°12.549 2°49.302 20.3832 0.072256 0.362654 -1.174688
2008-09-01 06:53:42 51°12.542 2°49.277 20.3807 0.072256 0.362659 -1.209513
2008-09-01 06:53:47 51°12.536 2°49.252 20.3795 0.072256 0.362659 -1.209513
2008-09-01 06:53:53 51°12.527 2°49.221 20.3926 0.072256 0.362659 -1.209513
2008-09-01 06:53:57 51°12.522 2°49.201 20.3859 0.072256 0.362665 -1.209513
2008-09-01 06:54:02 51°12.515 2°49.175 20.3944 0.072256 0.362671 -1.209513
2008-09-01 06:54:07 51°12.508 2°49.15 20.3927 0.072256 0.362677 -1.209513
2008-09-01 06:54:13 51°12.5 2°49.12 20.3892 0.072256 0.362677 -1.209513
2008-09-01 06:54:17 51°12.494 2°49.1 20.3898 0.072256 0.362682 -1.174688
2008-09-01 06:54:22 51°12.487 2°49.074 20.394 0.072256 0.362682 -1.174688
2008-09-01 06:54:27 51°12.481 2°49.048 20.3979 0.072256 0.362688 -1.209513
2008-09-01 06:54:33 51°12.473 2°49.018 20.3924 0.072256 0.362688 -1.209513
2008-09-01 06:54:37 51°12.467 2°48.997 20.3966 0.072256 0.362694 -1.209513
2008-09-01 06:54:42 51°12.46 2°48.972 20.3967 0.072256 0.362699 -1.209513
2008-09-01 06:54:47 51°12.453 2°48.947 20.3887 0.072256 0.362705 -1.209513
2008-09-01 06:54:52 51°12.445 2°48.922 20.3956 0.072256 0.362705 -1.209513
2008-09-01 06:54:57 51°12.438 2°48.896 20.3926 0.072256 0.362705 -1.209513
2008-09-01 06:55:02 51°12.431 2°48.871 20.3968 0.072256 0.362716 -1.209513
2008-09-01 06:55:07 51°12.425 2°48.845 20.4014 0.072256 0.362716 -1.174688
2008-09-01 06:55:12 51°12.418 2°48.82 20.4024 0.072256 0.362722 -1.209513
2008-09-01 06:55:17 51°12.411 2°48.794 20.3953 0.072256 0.362722 -1.209513
2008-09-01 06:55:22 51°12.403 2°48.769 20.3952 0.072256 0.362728 -1.209513
2008-09-01 06:55:27 51°12.396 2°48.744 20.3973 0.072256 0.362728 -1.209513
2008-09-01 06:55:32 51°12.389 2°48.719 20.4057 0.072256 0.362734 -1.209513
2008-09-01 06:55:37 51°12.382 2°48.694 20.407 0.072256 0.362739 -1.209513
2008-09-01 06:55:42 51°12.376 2°48.668 20.4077 0.072256 0.362745 -1.209513
2008-09-01 06:55:47 51°12.369 2°48.643 20.4067 0.072256 0.362751 -1.209513
2008-09-01 06:55:53 51°12.361 2°48.612 20.41 0.072256 0.362751 -1.209513
2008-09-01 06:55:57 51°12.355 2°48.592 20.4025 0.072256 0.362756 -1.209513
2008-09-01 06:56:02 51°12.348 2°48.567 20.3987 0.072256 0.362756 -1.209513
2008-09-01 06:56:07 51°12.341 2°48.542 20.4097 0.072256 0.362762 -1.209513
2008-09-01 06:56:13 51°12.332 2°48.511 20.403 0.072256 0.362768 -1.209513
2008-09-01 06:56:17 51°12.327 2°48.491 20.4053 0.072256 0.362773 -1.209513
2008-09-01 06:56:22 51°12.319 2°48.466 20.4076 0.072256 0.362773 -1.209513
2008-09-01 06:56:27 51°12.312 2°48.441 20.4116 0.072256 0.362773 -1.209513
2008-09-01 06:56:33 51°12.304 2°48.411 20.4134 0.072256 0.362779 -1.209513
2008-09-01 06:56:37 51°12.298 2°48.39 20.4174 0.072256 0.362779 -1.209513
2008-09-01 06:56:42 51°12.291 2°48.365 20.4078 0.072256 0.362779 -1.209513
2008-09-01 06:56:47 51°12.284 2°48.34 20.416 0.072256 0.362791 -1.209513
2008-09-01 06:56:53 51°12.276 2°48.309 20.4198 0.072256 0.362791 -1.209513
2008-09-01 06:56:57 51°12.27 2°48.289 20.4103 0.072256 0.362796 -1.209513
2008-09-01 06:57:02 51°12.263 2°48.263 20.411 0.072256 0.362802 -1.209513
2008-09-01 06:57:07 51°12.256 2°48.238 20.4205 0.072256 0.362808 -1.209513
2008-09-01 06:57:13 51°12.247 2°48.207 20.4219 0.072256 0.362808 -1.209513
2008-09-01 06:57:17 51°12.241 2°48.187 20.4232 0.072256 0.362813 -1.209513
2008-09-01 06:57:22 51°12.234 2°48.161 20.4149 0.072256 0.362813 -1.209513
2008-09-01 06:57:27 51°12.227 2°48.136 20.4201 0.072256 0.362813 -1.209513
2008-09-01 06:57:33 51°12.219 2°48.105 20.4189 0.072256 0.362825 -1.209513
2008-09-01 06:57:37 51°12.214 2°48.085 20.4253 0.072256 0.362825 -1.209513
2008-09-01 06:57:42 51°12.207 2°48.06 20.4204 0.072256 0.36283 -1.174688
2008-09-01 06:57:47 51°12.2 2°48.035 20.4255 0.072256 0.36283 -1.174688
2008-09-01 06:57:53 51°12.191 2°48.004 20.4298 0.072256 0.36283 -1.174688
2008-09-01 06:57:57 51°12.185 2°47.984 20.4302 0.072256 0.362836 -1.209513
2008-09-01 06:58:03 51°12.177 2°47.954 20.4198 0.072256 0.362842 -1.209513
2008-09-01 06:58:08 51°12.17 2°47.928 20.4322 0.072256 0.362842 -1.209513
2008-09-01 06:58:13 51°12.163 2°47.902 20.4253 0.072256 0.362853 -1.209513
2008-09-01 06:58:17 51°12.158 2°47.882 20.4335 0.072256 0.362859 -1.209513
2008-09-01 06:58:22 51°12.15 2°47.856 20.4314 0.072256 0.362859 -1.209513
2008-09-01 06:58:28 51°12.142 2°47.826 20.4288 0.072256 0.362859 -1.209513
2008-09-01 06:58:33 51°12.135 2°47.8 20.433 0.072256 0.362865 -1.209513
2008-09-01 06:58:37 51°12.129 2°47.78 20.4251 0.072256 0.36287 -1.209513
2008-09-01 06:58:42 51°12.122 2°47.755 20.437 0.072256 0.362876 -1.209513
2008-09-01 06:58:47 51°12.115 2°47.73 20.4386 0.072256 0.362876 -1.209513
2008-09-01 06:58:53 51°12.106 2°47.699 20.4393 0.072256 0.362876 -1.209513
2008-09-01 06:58:57 51°12.101 2°47.679 20.4283 0.072256 0.362882 -1.209513
2008-09-01 06:59:02 51°12.094 2°47.653 20.4349 0.072256 0.362888 -1.209513
2008-09-01 06:59:07 51°12.087 2°47.628 20.4386 0.072256 0.362888 -1.174688
2008-09-01 06:59:12 51°12.08 2°47.602 20.4289 0.072256 0.362893 -1.209513
2008-09-01 06:59:17 51°12.073 2°47.577 20.441 0.072256 0.362899 -1.209513
2008-09-01 06:59:22 51°12.066 2°47.551 20.4375 0.072256 0.362899 -1.209513
2008-09-01 06:59:27 51°12.059 2°47.526 20.4376 0.072256 0.362905 -1.174688
2008-09-01 06:59:32 51°12.052 2°47.5 20.4463 0.072256 0.362905 -1.209513
2008-09-01 06:59:37 51°12.045 2°47.474 20.4429 0.072256 0.36291 -1.209513
2008-09-01 06:59:42 51°12.038 2°47.449 20.4438 0.072256 0.362916 -1.209513
2008-09-01 06:59:47 51°12.031 2°47.423 20.4447 0.072256 0.362922 -1.209513
2008-09-01 06:59:53 51°12.022 2°47.393 20.4429 0.072256 0.362922 -1.209513
2008-09-01 06:59:57 51°12.017 2°47.373 20.4471 0.072256 0.362928 -1.174688
2008-09-01 07:00:02 51°12.01 2°47.347 20.446 0.072256 0.362928 -1.209513
2008-09-01 07:00:07 51°12.003 2°47.321 20.4482 0.072256 0.362933 -1.174688
2008-09-01 07:00:13 51°11.995 2°47.291 20.4478 0.072256 0.362939 -1.209513
2008-09-01 07:00:17 51°11.989 2°47.27 20.4428 0.072256 0.362945 -1.209513
2008-09-01 07:00:22 51°11.983 2°47.245 20.4498 0.072256 0.362945 -1.209513
2008-09-01 07:00:27 51°11.976 2°47.219 20.4535 0.072256 0.362945 -1.209513
2008-09-01 07:00:33 51°11.968 2°47.188 20.4563 0.072256 0.362945 -1.209513
2008-09-01 07:00:37 51°11.963 2°47.167 20.4544 0.072256 0.362956 -1.209513
2008-09-01 07:00:42 51°11.956 2°47.142 20.4458 0.072256 0.362956 -1.209513
2008-09-01 07:00:47 51°11.949 2°47.116 20.4478 0.072256 0.362956 -1.209513
2008-09-01 07:00:53 51°11.94 2°47.085 20.4501 0.072256 0.362956 -1.209513
2008-09-01 07:00:57 51°11.935 2°47.064 20.4571 0.072256 0.362962 -1.174688
2008-09-01 07:01:02 51°11.928 2°47.038 20.4606 0.072256 0.362967 -1.209513
2008-09-01 07:01:07 51°11.921 2°47.012 20.4467 0.072256 0.362967 -1.209513
2008-09-01 07:01:13 51°11.914 2°46.981 20.463 0.072256 0.362979 -1.209513
2008-09-01 07:01:17 51°11.909 2°46.96 20.4514 0.072256 0.362979 -1.209513
2008-09-01 07:01:22 51°11.902 2°46.934 20.4631 0.072256 0.362979 -1.209513
2008-09-01 07:01:27 51°11.895 2°46.908 20.4568 0.072256 0.362985 -1.209513
2008-09-01 07:01:32 51°11.889 2°46.882 20.4504 0.072256 0.362985 -1.209513
2008-09-01 07:01:37 51°11.882 2°46.856 20.4656 0.072256 0.36299 -1.209513
2008-09-01 07:01:42 51°11.876 2°46.83 20.468 0.072256 0.363002 -1.209513
2008-09-01 07:01:47 51°11.869 2°46.804 20.4614 0.072256 0.363007 -1.209513
2008-09-01 07:01:52 51°11.862 2°46.779 20.4648 0.072256 0.363007 -1.209513
2008-09-01 07:01:57 51°11.855 2°46.753 20.4619 0.072256 0.363007 -1.209513
2008-09-01 07:02:02 51°11.848 2°46.728 20.4682 0.072256 0.363013 -1.209513
2008-09-01 07:02:07 51°11.841 2°46.702 20.4595 0.072256 0.363013 -1.174688
2008-09-01 07:02:12 51°11.834 2°46.676 20.4705 0.072256 0.363013 -1.209513
2008-09-01 07:02:17 51°11.827 2°46.65 20.4602 0.072256 0.363019 -1.209513
2008-09-01 07:02:22 51°11.82 2°46.625 20.4728 0.072256 0.363019 -1.209513
2008-09-01 07:02:27 51°11.814 2°46.598 20.4719 0.072256 0.36303 -1.209513
2008-09-01 07:02:33 51°11.806 2°46.567 20.4653 0.072256 0.36303 -1.209513
2008-09-01 07:02:37 51°11.801 2°46.546 20.4726 0.072256 0.363036 -1.209513
2008-09-01 07:02:42 51°11.794 2°46.52 20.4691 0.072256 0.363042 -1.209513
2008-09-01 07:02:47 51°11.788 2°46.493 20.4674 0.072256 0.363042 -1.209513
2008-09-01 07:02:53 51°11.78 2°46.462 20.4729 0.072256 0.363042 -1.209513
2008-09-01 07:02:57 51°11.775 2°46.441 20.4679 0.072256 0.363047 -1.209513
2008-09-01 07:03:02 51°11.768 2°46.415 20.4828 0.072256 0.363047 -1.209513
2008-09-01 07:03:07 51°11.761 2°46.389 20.4732 0.072256 0.363059 -1.209513
2008-09-01 07:03:13 51°11.754 2°46.357 20.4763 0.072256 0.363059 -1.174688
2008-09-01 07:03:17 51°11.748 2°46.336 20.48 0.072256 0.363065 -1.209513
2008-09-01 07:03:22 51°11.742 2°46.31 20.4782 0.072256 0.363065 -1.209513
2008-09-01 07:03:27 51°11.734 2°46.285 20.4847 0.072256 0.363065 -1.209513
2008-09-01 07:03:33 51°11.726 2°46.254 20.4802 0.072256 0.36307 -1.209513
2008-09-01 07:03:37 51°11.72 2°46.233 20.4861 0.072256 0.36307 -1.209513
2008-09-01 07:03:42 51°11.713 2°46.208 20.4837 0.072256 0.363076 -1.209513
2008-09-01 07:03:47 51°11.706 2°46.182 20.4831 0.072256 0.363082 -1.209513
2008-09-01 07:03:53 51°11.697 2°46.151 20.4825 0.072256 0.363082 -1.209513
2008-09-01 07:03:57 51°11.691 2°46.13 20.4847 0.072256 0.363087 -1.209513
2008-09-01 07:04:02 51°11.684 2°46.104 20.4884 0.072256 0.363087 -1.209513
2008-09-01 07:04:07 51°11.677 2°46.078 20.4919 0.072256 0.363099 -1.209513
2008-09-01 07:04:13 51°11.668 2°46.048 20.4942 0.072256 0.363105 -1.209513
2008-09-01 07:04:17 51°11.663 2°46.027 20.4875 0.072256 0.363105 -1.209513
2008-09-01 07:04:22 51°11.655 2°46.002 20.4895 0.072256 0.363105 -1.209513
2008-09-01 07:04:27 51°11.649 2°45.975 20.49 0.072256 0.36311 -1.209513
2008-09-01 07:04:33 51°11.641 2°45.944 20.4864 0.072256 0.36311 -1.209513
2008-09-01 07:04:37 51°11.636 2°45.923 20.4941 0.072256 0.363116 -1.209513
2008-09-01 07:04:42 51°11.629 2°45.897 20.4956 0.072256 0.363122 -1.209513
2008-09-01 07:04:47 51°11.623 2°45.871 20.4932 0.072256 0.363122 -1.209513
2008-09-01 07:04:53 51°11.615 2°45.839 20.4996 0.072256 0.363122 -1.209513
2008-09-01 07:04:57 51°11.61 2°45.818 20.4984 0.072256 0.363127 -1.209513
2008-09-01 07:05:02 51°11.604 2°45.792 20.5029 0.072256 0.363127 -1.209513
2008-09-01 07:05:08 51°11.596 2°45.761 20.5028 0.072256 0.363127 -1.209513
2008-09-01 07:05:13 51°11.589 2°45.734 20.4995 0.072256 0.363133 -1.209513
2008-09-01 07:05:17 51°11.584 2°45.713 20.5027 0.072256 0.363139 -1.209513
2008-09-01 07:05:22 51°11.578 2°45.687 20.4988 0.072256 0.363139 -1.209513
2008-09-01 07:05:28 51°11.569 2°45.656 20.4973 0.072256 0.363145 -1.209513
2008-09-01 07:05:33 51°11.562 2°45.63 20.4965 0.072256 0.36315 -1.209513
2008-09-01 07:05:37 51°11.557 2°45.61 20.5017 0.072256 0.363156 -1.209513
2008-09-01 07:05:42 51°11.55 2°45.584 20.497 0.072256 0.363162 -1.174688
2008-09-01 07:05:47 51°11.542 2°45.558 20.4964 0.072153 0.362629 -1.209513
2008-09-01 07:05:53 51°11.534 2°45.527 20.5055 0.072153 0.362629 -1.209513
2008-09-01 07:05:57 51°11.528 2°45.507 20.5059 0.072256 0.363167 -1.209513
2008-09-01 07:06:02 51°11.522 2°45.481 20.5036 0.072256 0.363173 -1.209513
2008-09-01 07:06:07 51°11.515 2°45.455 20.5127 0.072256 0.363179 -1.209513
2008-09-01 07:06:12 51°11.508 2°45.429 20.5102 0.072256 0.363185 -1.209513
2008-09-01 07:06:17 51°11.502 2°45.403 20.5082 0.072153 0.362652 -1.209513
2008-09-01 07:06:22 51°11.495 2°45.377 20.5106 0.072153 0.362652 -1.209513
2008-09-01 07:06:27 51°11.488 2°45.351 20.5053 0.072256 0.36319 -1.209513
2008-09-01 07:06:33 51°11.48 2°45.32 20.514 0.072153 0.362657 -1.209513
2008-09-01 07:06:37 51°11.474 2°45.3 20.5186 0.072256 0.363196 -1.209513
2008-09-01 07:06:42 51°11.467 2°45.274 20.5083 0.072153 0.362663 -1.209513
2008-09-01 07:06:47 51°11.46 2°45.248 20.508 0.072153 0.362669 -1.209513
2008-09-01 07:06:53 51°11.452 2°45.217 20.5161 0.072153 0.362669 -1.209513
2008-09-01 07:06:57 51°11.447 2°45.196 20.5124 0.072153 0.362675 -1.209513
2008-09-01 07:07:02 51°11.44 2°45.17 20.5219 0.072153 0.362675 -1.209513
2008-09-01 07:07:07 51°11.434 2°45.144 20.515 0.072153 0.36268 -1.209513
2008-09-01 07:07:13 51°11.426 2°45.113 20.526 0.072153 0.362686 -1.209513
2008-09-01 07:07:17 51°11.421 2°45.092 20.5218 0.072153 0.362692 -1.209513
2008-09-01 07:07:22 51°11.414 2°45.066 20.5197 0.072153 0.362692 -1.209513
2008-09-01 07:07:27 51°11.407 2°45.04 20.5181 0.072153 0.362697 -1.209513
2008-09-01 07:07:33 51°11.399 2°45.009 20.5182 0.072153 0.362697 -1.209513
2008-09-01 07:07:37 51°11.394 2°44.988 20.5199 0.072153 0.362703 -1.209513
2008-09-01 07:07:42 51°11.388 2°44.961 20.5212 0.072153 0.362709 -1.209513
2008-09-01 07:07:47 51°11.381 2°44.935 20.5201 0.072153 0.362709 -1.209513
2008-09-01 07:07:53 51°11.374 2°44.903 20.5261 0.072153 0.362709 -1.209513
2008-09-01 07:07:57 51°11.37 2°44.882 20.5211 0.072153 0.362715 -1.209513
2008-09-01 07:08:02 51°11.364 2°44.855 20.5265 0.072153 0.362715 -1.209513
2008-09-01 07:08:07 51°11.359 2°44.828 20.5298 0.072153 0.362726 -1.209513
2008-09-01 07:08:12 51°11.353 2°44.802 20.532 0.072153 0.362726 -1.209513
2008-09-01 07:08:17 51°11.347 2°44.775 20.5255 0.072153 0.362737 -1.209513
2008-09-01 07:08:22 51°11.342 2°44.748 20.5244 0.072153 0.362737 -1.209513
2008-09-01 07:08:27 51°11.336 2°44.721 20.5323 0.072153 0.362737 -1.174688
2008-09-01 07:08:32 51°11.331 2°44.694 20.5346 0.072153 0.362737 -1.209513
2008-09-01 07:08:37 51°11.325 2°44.667 20.5344 0.072153 0.362743 -1.209513
2008-09-01 07:08:42 51°11.32 2°44.64 20.543 0.072153 0.362749 -1.209513
2008-09-01 07:08:47 51°11.315 2°44.613 20.5304 0.072153 0.362755 -1.209513
2008-09-01 07:08:53 51°11.307 2°44.582 20.5402 0.072153 0.362755 -1.209513
2008-09-01 07:08:57 51°11.303 2°44.56 20.5336 0.072153 0.36276 -1.209513
2008-09-01 07:09:02 51°11.297 2°44.533 20.5365 0.072153 0.36276 -1.209513
2008-09-01 07:09:07 51°11.292 2°44.507 20.5398 0.072153 0.362766 -1.209513
2008-09-01 07:09:13 51°11.284 2°44.475 20.5399 0.072153 0.362772 -1.174688
2008-09-01 07:09:17 51°11.279 2°44.454 20.5354 0.072153 0.362777 -1.209513
2008-09-01 07:09:22 51°11.274 2°44.427 20.5423 0.072153 0.362777 -1.209513
2008-09-01 07:09:27 51°11.268 2°44.401 20.5496 0.072153 0.362777 -1.174688
2008-09-01 07:09:33 51°11.26 2°44.369 20.5346 0.072153 0.362783 -1.209513
2008-09-01 07:09:37 51°11.256 2°44.348 20.5385 0.072153 0.362789 -1.209513
2008-09-01 07:09:42 51°11.25 2°44.322 20.5459 0.072153 0.362789 -1.209513
2008-09-01 07:09:47 51°11.244 2°44.296 20.5462 0.072153 0.362795 -1.209513
2008-09-01 07:09:53 51°11.237 2°44.264 20.5435 0.072153 0.362795 -1.209513
2008-09-01 07:09:57 51°11.232 2°44.243 20.5553 0.072153 0.3628 -1.209513
2008-09-01 07:10:02 51°11.227 2°44.217 20.5492 0.072153 0.362806 -1.209513
2008-09-01 07:10:07 51°11.221 2°44.19 20.5459 0.072153 0.362812 -1.209513
2008-09-01 07:10:13 51°11.214 2°44.159 20.554 0.072153 0.362812 -1.209513
2008-09-01 07:10:17 51°11.209 2°44.138 20.5506 0.072153 0.362812 -1.209513
2008-09-01 07:10:22 51°11.203 2°44.112 20.5557 0.072153 0.362812 -1.209513
2008-09-01 07:10:27 51°11.198 2°44.085 20.5488 0.072153 0.362823 -1.209513
2008-09-01 07:10:33 51°11.192 2°44.053 20.554 0.072153 0.362823 -1.209513
2008-09-01 07:10:37 51°11.188 2°44.032 20.5509 0.072153 0.362829 -1.209513
2008-09-01 07:10:42 51°11.182 2°44.005 20.5612 0.072153 0.362829 -1.209513
2008-09-01 07:10:47 51°11.177 2°43.978 20.5489 0.072153 0.362835 -1.209513
2008-09-01 07:10:53 51°11.171 2°43.946 20.5576 0.072153 0.362835 -1.209513
2008-09-01 07:10:57 51°11.167 2°43.924 20.5644 0.072153 0.36284 -1.209513
2008-09-01 07:11:02 51°11.162 2°43.897 20.5548 0.072153 0.362846 -1.209513
2008-09-01 07:11:07 51°11.157 2°43.87 20.565 0.072153 0.362852 -1.209513
2008-09-01 07:11:13 51°11.151 2°43.838 20.5622 0.072153 0.362852 -1.209513
2008-09-01 07:11:17 51°11.147 2°43.816 20.5672 0.072153 0.362857 -1.209513
2008-09-01 07:11:22 51°11.142 2°43.789 20.557 0.072153 0.362857 -1.209513
2008-09-01 07:11:27 51°11.136 2°43.762 20.553 0.072154 0.362863 -1.209513
2008-09-01 07:11:33 51°11.13 2°43.73 20.56 0.072154 0.362863 -1.209513
2008-09-01 07:11:37 51°11.126 2°43.709 20.5692 0.072154 0.362869 -1.209513
2008-09-01 07:11:43 51°11.121 2°43.676 20.5612 0.072154 0.362869 -1.209513
2008-09-01 07:11:47 51°11.117 2°43.655 20.5713 0.072154 0.362875 -1.209513
2008-09-01 07:11:53 51°11.111 2°43.622 20.5708 0.072154 0.362875 -1.209513
2008-09-01 07:11:57 51°11.108 2°43.6 20.5741 0.072154 0.362875 -1.209513
2008-09-01 07:12:02 51°11.103 2°43.573 20.5729 0.072154 0.362886 -1.209513
2008-09-01 07:12:09 51°11.096 2°43.535 20.5782 0.072154 0.362886 -1.209513
2008-09-01 07:12:13 51°11.092 2°43.514 20.5718 0.072154 0.362892 -1.209513
2008-09-01 07:12:17 51°11.088 2°43.492 20.5642 0.072154 0.362897 -1.174688
2008-09-01 07:12:22 51°11.084 2°43.465 20.5862 0.072154 0.362897 -1.174688
2008-09-01 07:12:27 51°11.079 2°43.438 20.5678 0.072154 0.362903 -1.209513
2008-09-01 07:12:33 51°11.073 2°43.406 20.5704 0.072154 0.362903 -1.209513
2008-09-01 07:12:37 51°11.069 2°43.384 20.5778 0.072154 0.362909 -1.209513
2008-09-01 07:12:43 51°11.064 2°43.352 20.5756 0.072154 0.362915 -1.209513
2008-09-01 07:12:47 51°11.06 2°43.33 20.5756 0.072154 0.362915 -1.209513
2008-09-01 07:12:53 51°11.055 2°43.297 20.5824 0.072154 0.362915 -1.209513
2008-09-01 07:12:57 51°11.052 2°43.275 20.5714 0.072154 0.362926 -1.209513
2008-09-01 07:13:03 51°11.047 2°43.243 20.5712 0.072154 0.362932 -1.209513
2008-09-01 07:13:07 51°11.044 2°43.221 20.582 0.072154 0.362932 -1.209513
2008-09-01 07:13:13 51°11.039 2°43.188 20.5875 0.072154 0.362938 -1.209513
2008-09-01 07:13:17 51°11.037 2°43.166 20.578 0.072154 0.362938 -1.209513
2008-09-01 07:13:23 51°11.032 2°43.133 20.5913 0.072154 0.362938 -1.209513
2008-09-01 07:13:27 51°11.029 2°43.111 20.5886 0.072154 0.362943 -1.209513
2008-09-01 07:13:33 51°11.025 2°43.078 20.5856 0.072154 0.362949 -1.209513
2008-09-01 07:13:37 51°11.022 2°43.056 20.5846 0.072154 0.362949 -1.209513
2008-09-01 07:13:43 51°11.018 2°43.024 20.5959 0.072154 0.36296 -1.209513
2008-09-01 07:13:47 51°11.016 2°43.002 20.5807 0.072154 0.36296 -1.209513
2008-09-01 07:13:53 51°11.011 2°42.969 20.5979 0.072154 0.36296 -1.209513
2008-09-01 07:13:57 51°11.008 2°42.947 20.5915 0.072154 0.362966 -1.209513
2008-09-01 07:14:03 51°11.004 2°42.913 20.5935 0.072154 0.362966 -1.209513
2008-09-01 07:14:07 51°11.002 2°42.891 20.5968 0.072154 0.362972 -1.209513
2008-09-01 07:14:13 51°10.997 2°42.858 20.6 0.072154 0.362978 -1.209513
2008-09-01 07:14:17 51°10.995 2°42.836 20.5919 0.072154 0.362983 -1.209513
2008-09-01 07:14:23 51°10.991 2°42.803 20.6019 0.072154 0.362983 -1.209513
2008-09-01 07:14:27 51°10.988 2°42.78 20.5979 0.072154 0.362989 -1.209513
2008-09-01 07:14:33 51°10.984 2°42.747 20.5938 0.072154 0.362995 -1.209513
2008-09-01 07:14:37 51°10.982 2°42.725 20.6023 0.072154 0.362995 -1.209513
2008-09-01 07:14:43 51°10.977 2°42.692 20.6049 0.072154 0.363 -1.209513
2008-09-01 07:14:47 51°10.974 2°42.67 20.6028 0.072154 0.363006 -1.209513
2008-09-01 07:14:53 51°10.97 2°42.638 20.6016 0.072154 0.363006 -1.209513
2008-09-01 07:14:57 51°10.967 2°42.616 20.5999 0.072154 0.363006 -1.209513
2008-09-01 07:15:02 51°10.962 2°42.589 20.6051 0.072154 0.363018 -1.209513
2008-09-01 07:15:07 51°10.958 2°42.561 20.6026 0.072154 0.363018 -1.209513
2008-09-01 07:15:13 51°10.953 2°42.529 20.6043 0.072154 0.363023 -1.209513
2008-09-01 07:15:17 51°10.949 2°42.507 20.6071 0.072154 0.363023 -1.209513
2008-09-01 07:15:23 51°10.945 2°42.475 20.6024 0.072154 0.363023 -1.209513
2008-09-01 07:15:27 51°10.941 2°42.453 20.6101 0.072154 0.363029 -1.209513
2008-09-01 07:15:33 51°10.936 2°42.42 20.6127 0.072154 0.363035 -1.209513
2008-09-01 07:15:37 51°10.933 2°42.399 20.613 0.072154 0.363041 -1.209513
2008-09-01 07:15:43 51°10.928 2°42.366 20.6109 0.072154 0.363046 -1.209513
2008-09-01 07:15:47 51°10.925 2°42.344 20.617 0.072154 0.363046 -1.209513
2008-09-01 07:15:53 51°10.92 2°42.311 20.6065 0.072154 0.363046 -1.209513
2008-09-01 07:15:57 51°10.917 2°42.289 20.6122 0.072154 0.363052 -1.209513
2008-09-01 07:16:03 51°10.912 2°42.256 20.621 0.072154 0.363058 -1.209513
2008-09-01 07:16:07 51°10.908 2°42.235 20.6099 0.072154 0.363063 -1.209513
2008-09-01 07:16:13 51°10.903 2°42.202 20.6183 0.072154 0.363063 -1.209513
2008-09-01 07:16:17 51°10.9 2°42.18 20.6157 0.072154 0.363069 -1.209513
2008-09-01 07:16:23 51°10.896 2°42.148 20.6181 0.072154 0.363069 -1.209513
2008-09-01 07:16:27 51°10.893 2°42.126 20.6249 0.072154 0.363075 -1.209513
2008-09-01 07:16:33 51°10.888 2°42.093 20.6108 0.072154 0.363081 -1.209513
2008-09-01 07:16:37 51°10.885 2°42.071 20.6168 0.072154 0.363086 -1.209513
2008-09-01 07:16:43 51°10.88 2°42.038 20.6239 0.072154 0.363092 -1.209513
2008-09-01 07:16:49 51°10.875 2°42.006 20.6168 0.072154 0.363098 -1.209513
2008-09-01 07:16:53 51°10.872 2°41.984 20.6118 0.072154 0.363098 -1.209513
2008-09-01 07:16:57 51°10.869 2°41.963 20.6252 0.072154 0.363098 -1.209513
2008-09-01 07:17:03 51°10.865 2°41.93 60.6243 0.072154 0.363098 -1.209513
2008-09-01 07:17:07 51°10.862 2°41.908 20.6226 0.072154 0.363104 -1.209513
2008-09-01 07:17:13 51°10.858 2°41.875 20.6245 0.072154 0.363104 -1.209513
2008-09-01 07:17:17 51°10.855 2°41.853 20.626 0.072154 0.363109 -1.209513
2008-09-01 07:17:22 51°10.852 2°41.826 20.6238 0.072154 0.363109 -1.209513
2008-09-01 07:17:27 51°10.849 2°41.798 20.6256 0.072154 0.363121 -1.209513
2008-09-01 07:17:33 51°10.845 2°41.765 20.6326 0.072154 0.363121 -1.209513
2008-09-01 07:17:37 51°10.842 2°41.743 20.637 0.072154 0.363126 -1.209513
2008-09-01 07:17:43 51°10.838 2°41.71 20.6237 0.072154 0.363132 -1.209513
2008-09-01 07:17:47 51°10.835 2°41.688 20.6362 0.072154 0.363138 -1.209513
2008-09-01 07:17:53 51°10.831 2°41.655 20.6332 0.072154 0.363138 -1.209513
2008-09-01 07:17:57 51°10.827 2°41.633 20.632 0.072154 0.363144 -1.209513
2008-09-01 07:18:03 51°10.823 2°41.6 20.6368 0.072154 0.363144 -1.209513
2008-09-01 07:18:07 51°10.82 2°41.579 20.6371 0.072154 0.363144 -1.209513
2008-09-01 07:18:13 51°10.816 2°41.546 20.6319 0.072154 0.363155 -1.209513
2008-09-01 07:18:17 51°10.812 2°41.524 20.6403 0.072154 0.363155 -1.209513
2008-09-01 07:18:23 51°10.808 2°41.491 20.6425 0.072154 0.363155 -1.209513
2008-09-01 07:18:27 51°10.804 2°41.469 20.6357 0.072154 0.363161 -1.209513
2008-09-01 07:18:33 51°10.799 2°41.436 20.6365 0.072154 0.363167 -1.209513
2008-09-01 07:18:37 51°10.796 2°41.415 20.6393 0.072154 0.363172 -1.209513
2008-09-01 07:18:43 51°10.792 2°41.382 20.6494 0.072154 0.363172 -1.209513
2008-09-01 07:18:49 51°10.787 2°41.348 20.6357 0.072154 0.363184 -1.174688
2008-09-01 07:18:53 51°10.784 2°41.326 20.644 0.072154 0.363184 -1.174688
2008-09-01 07:18:57 51°10.781 2°41.304 20.6462 0.072154 0.363184 -1.209513
2008-09-01 07:19:03 51°10.777 2°41.271 20.6428 0.072154 0.363184 -1.209513
2008-09-01 07:19:07 51°10.774 2°41.249 20.6456 0.072051 0.362661 -1.209513
2008-09-01 07:19:13 51°10.77 2°41.216 20.6454 0.072154 0.363195 -1.209513
2008-09-01 07:19:17 51°10.767 2°41.194 20.6494 0.072051 0.362667 -1.209513
2008-09-01 07:19:23 51°10.764 2°41.161 20.6542 0.072051 0.362667 -1.209513
2008-09-01 07:19:27 51°10.761 2°41.139 20.6406 0.072051 0.362673 -1.209513
2008-09-01 07:19:33 51°10.757 2°41.106 20.6529 0.072051 0.362673 -1.209513
2008-09-01 07:19:37 51°10.754 2°41.084 20.6458 0.072051 0.362679 -1.209513
2008-09-01 07:19:43 51°10.751 2°41.051 20.6487 0.072051 0.362684 -1.209513
2008-09-01 07:19:47 51°10.748 2°41.029 20.6443 0.072051 0.362684 -1.209513
2008-09-01 07:19:53 51°10.744 2°40.996 20.6494 0.072051 0.362684 -1.209513
2008-09-01 07:19:57 51°10.742 2°40.976 20.6619 0.072051 0.36269 -1.209513
2008-09-01 07:20:03 51°10.739 2°40.946 20.6566 0.072051 0.362702 -1.209513
2008-09-01 07:20:07 51°10.736 2°40.927 20.6677 0.072051 0.362702 -1.209513
2008-09-01 07:20:13 51°10.733 2°40.9 20.6555 0.072051 0.362707 -1.209513
2008-09-01 07:20:17 51°10.731 2°40.883 20.6691 0.072051 0.362713 -1.209513
2008-09-01 07:20:23 51°10.727 2°40.858 20.6599 0.072051 0.362713 -1.209513
2008-09-01 07:20:27 51°10.725 2°40.842 20.6627 0.072051 0.362719 -1.209513
2008-09-01 07:20:33 51°10.721 2°40.818 20.6622 0.072051 0.362724 -1.209513
2008-09-01 07:20:37 51°10.719 2°40.802 20.6657 0.072051 0.362724 -1.209513
2008-09-01 07:20:43 51°10.715 2°40.779 20.6704 0.072051 0.36273 -1.209513
2008-09-01 07:20:47 51°10.713 2°40.764 20.661 0.072051 0.362736 -1.209513
2008-09-01 07:20:53 51°10.709 2°40.744 20.6575 0.072051 0.362736 -1.209513
2008-09-01 07:20:57 51°10.706 2°40.73 20.6653 0.072051 0.362742 -1.209513
2008-09-01 07:21:03 51°10.702 2°40.711 20.6732 0.072051 0.362742 -1.209513
2008-09-01 07:21:07 51°10.7 2°40.699 20.6646 0.072051 0.362753 -1.209513
2008-09-01 07:21:13 51°10.697 2°40.682 20.6766 0.072051 0.362747 -1.209513
2008-09-01 07:21:17 51°10.696 2°40.671 20.6693 0.072051 0.362759 -1.209513
2008-09-01 07:21:23 51°10.695 2°40.656 20.6634 0.072051 0.362759 -1.209513
2008-09-01 07:21:28 51°10.694 2°40.644 20.6653 0.072051 0.362765 -1.209513
2008-09-01 07:21:34 51°10.694 2°40.631 20.6781 0.072051 0.36277 -1.209513
2008-09-01 07:21:38 51°10.695 2°40.623 20.6799 0.072051 0.36277 -1.209513
2008-09-01 07:21:43 51°10.696 2°40.613 20.6852 0.072051 0.362776 -1.209513
2008-09-01 07:21:48 51°10.698 2°40.605 20.6801 0.072051 0.362782 -1.209513
2008-09-01 07:21:53 51°10.7 2°40.597 20.6916 0.072051 0.362782 -1.209513
2008-09-01 07:21:57 51°10.701 2°40.592 20.6855 0.072051 0.362793 -1.209513
2008-09-01 07:22:03 51°10.704 2°40.586 20.6899 0.072051 0.362805 -1.209513
2008-09-01 07:22:07 51°10.705 2°40.582 20.6873 0.072051 0.362805 -1.209513
2008-09-01 07:22:13 51°10.707 2°40.577 20.6834 0.072051 0.362805 -1.209513
2008-09-01 07:22:17 51°10.708 2°40.574 20.678 0.072051 0.36281 -1.209513
2008-09-01 07:22:23 51°10.71 2°40.571 20.683 0.072051 0.36281 -1.209513
2008-09-01 07:22:28 51°10.711 2°40.569 20.6873 0.072051 0.36281 -1.209513
2008-09-01 07:22:33 51°10.711 2°40.567 20.6779 0.072051 0.362822 -1.209513
2008-09-01 07:22:37 51°10.711 2°40.566 20.6935 0.072051 0.362828 -1.209513
2008-09-01 07:22:43 51°10.711 2°40.565 20.6968 0.072051 0.362828 -1.209513
2008-09-01 07:22:47 51°10.711 2°40.565 20.6898 0.072051 0.362833 -1.209513
2008-09-01 07:22:53 51°10.711 2°40.564 20.6816 0.072051 0.362833 -1.209513
2008-09-01 07:22:57 51°10.711 2°40.564 20.6938 0.072051 0.362839 -1.209513
2008-09-01 07:23:03 51°10.711 2°40.563 20.6956 0.072051 0.362845 -1.209513
2008-09-01 07:23:09 51°10.711 2°40.563 20.6941 0.072051 0.362845 -1.209513
2008-09-01 07:23:13 51°10.711 2°40.563 20.6944 0.072051 0.362845 -1.209513
2008-09-01 07:23:17 51°10.711 2°40.562 20.6933 0.072051 0.36285 -1.209513
2008-09-01 07:23:23 51°10.71 2°40.562 20.6929 0.072051 0.36285 -1.209513
2008-09-01 07:23:28 51°10.71 2°40.562 20.6933 0.072051 0.36285 -1.209513
2008-09-01 07:23:33 51°10.71 2°40.562 20.7028 0.072051 0.362856 -1.209513
2008-09-01 07:23:37 51°10.71 2°40.562 20.707 0.072051 0.362856 -1.209513
2008-09-01 07:23:42 51°10.71 2°40.562 20.7035 0.072051 0.362862 -1.209513
2008-09-01 07:23:47 51°10.71 2°40.562 20.7069 0.072051 0.362868 -1.209513
2008-09-01 07:23:53 51°10.71 2°40.562 20.6943 0.072051 0.362868 -1.209513
2008-09-01 07:23:57 51°10.71 2°40.562 20.695 0.072051 0.362868 -1.209513
2008-09-01 07:24:02 51°10.71 2°40.562 20.7021 0.072051 0.362879 -1.209513
2008-09-01 07:24:07 51°10.709 2°40.562 20.707 0.072051 0.362879 -1.209513
2008-09-01 07:24:13 51°10.709 2°40.562 20.7101 0.072051 0.362891 -1.209513
2008-09-01 07:24:17 51°10.709 2°40.562 20.7096 0.072051 0.362896 -1.209513
2008-09-01 07:24:22 51°10.709 2°40.562 20.7114 0.072051 0.362896 -1.209513
2008-09-01 07:24:27 51°10.709 2°40.562 20.6977 0.072051 0.362902 -1.209513
2008-09-01 07:24:33 51°10.709 2°40.562 20.6973 0.072051 0.362913 -1.174688
2008-09-01 07:24:37 51°10.708 2°40.562 20.7022 0.072051 0.362919 -1.209513
2008-09-01 07:24:42 51°10.708 2°40.562 20.7016 0.072051 0.362925 -1.209513
2008-09-01 07:24:47 51°10.708 2°40.562 20.7025 0.072051 0.362936 -1.209513
2008-09-01 07:24:53 51°10.707 2°40.562 20.7031 0.072051 0.362936 -1.209513
2008-09-01 07:24:57 51°10.707 2°40.562 20.7136 0.072051 0.362942 -1.174688
2008-09-01 07:25:02 51°10.707 2°40.562 20.713 0.072051 0.362942 -1.209513
2008-09-01 07:25:07 51°10.707 2°40.562 20.718 0.072051 0.362948 -1.209513
2008-09-01 07:25:13 51°10.707 2°40.562 20.7204 0.072051 0.362954 -1.209513
2008-09-01 07:25:17 51°10.707 2°40.562 20.7138 0.072051 0.362954 -1.209513
2008-09-01 07:25:22 51°10.707 2°40.561 20.7233 0.072051 0.362954 -1.209513
2008-09-01 07:25:27 51°10.706 2°40.561 20.7263 0.072051 0.362971 -1.209513
2008-09-01 07:25:33 51°10.706 2°40.561 20.7201 0.072051 0.362977 -1.209513
2008-09-01 07:25:37 51°10.706 2°40.561 20.6756 0.072051 0.362982 -1.174688
2008-09-01 07:25:42 51°10.706 2°40.561 20.6962 0.072051 0.362994 -1.174688
2008-09-01 07:25:48 51°10.706 2°40.561 20.7215 0.072051 0.362999 -1.209513
2008-09-01 07:25:53 51°10.706 2°40.561 20.7181 0.072051 0.362999 -1.209513
2008-09-01 07:25:57 51°10.706 2°40.561 20.7173 0.072051 0.363005 -1.174688
2008-09-01 07:26:02 51°10.705 2°40.561 20.7148 0.072051 0.363011 -1.10504
2008-09-01 07:26:07 51°10.705 2°40.56 20.7172 0.072051 0.363017 -1.174688
2008-09-01 07:26:13 51°10.705 2°40.56 20.7178 0.072051 0.363017 -1.209513
2008-09-01 07:26:17 51°10.705 2°40.56 20.7259 0.072051 0.363022 -1.10504
2008-09-01 07:26:22 51°10.705 2°40.56 20.731 0.072051 0.363022 -1.10504
2008-09-01 07:26:27 51°10.705 2°40.559 20.7324 0.072051 0.363034 -1.174688
2008-09-01 07:26:32 51°10.704 2°40.559 20.7323 0.072051 0.36304 -1.174688
2008-09-01 07:26:37 51°10.704 2°40.559 20.7336 0.072051 0.36304 -1.209513
2008-09-01 07:26:42 51°10.704 2°40.559 20.7346 0.072051 0.363045 -1.244337
2008-09-01 07:26:47 51°10.704 2°40.558 20.7369 0.072051 0.363051 -1.209513
2008-09-01 07:26:52 51°10.704 2°40.558 20.7392 0.072051 0.363051 -1.209513
2008-09-01 07:26:57 51°10.703 2°40.558 20.7418 0.072051 0.363063 -1.209513
2008-09-01 07:27:02 51°10.703 2°40.558 20.7398 0.072051 0.363074 -1.209513
2008-09-01 07:27:07 51°10.703 2°40.557 20.7408 0.072051 0.363085 -1.209513
2008-09-01 07:27:12 51°10.703 2°40.557 20.7458 0.072051 0.363097 -1.209513
2008-09-01 07:27:17 51°10.703 2°40.558 20.7461 0.072051 0.363103 -1.209513
2008-09-01 07:27:22 51°10.702 2°40.557 20.7498 0.072051 0.363103 -1.209513
2008-09-01 07:27:27 51°10.702 2°40.557 20.75 0.072051 0.363103 -1.209513
2008-09-01 07:27:33 51°10.702 2°40.557 20.7496 0.072051 0.363108 -1.209513
2008-09-01 07:27:37 51°10.702 2°40.557 20.751 0.072051 0.36312 -1.209513
2008-09-01 07:27:42 51°10.702 2°40.557 20.7568 0.072051 0.363126 -1.209513
2008-09-01 07:27:47 51°10.701 2°40.557 20.7574 0.072051 0.363137 -1.209513
2008-09-01 07:27:53 51°10.701 2°40.557 20.7572 0.072051 0.363137 -1.209513
2008-09-01 07:27:57 51°10.701 2°40.557 20.7612 0.072051 0.363143 -1.209513
2008-09-01 07:28:02 51°10.701 2°40.556 20.7646 0.072051 0.363149 -1.209513
2008-09-01 07:28:07 51°10.7 2°40.556 20.7622 0.072051 0.36316 -1.209513
2008-09-01 07:28:13 51°10.7 2°40.556 20.7635 0.072051 0.363166 -1.209513
2008-09-01 07:28:17 51°10.7 2°40.556 20.765 0.072051 0.363172 -1.209513
2008-09-01 07:28:22 51°10.7 2°40.555 20.7698 0.072051 0.363172 -1.209513
2008-09-01 07:28:27 51°10.699 2°40.556 20.7719 0.072051 0.363172 -1.209513
2008-09-01 07:28:33 51°10.699 2°40.555 20.7734 0.072051 0.363189 -1.209513
2008-09-01 07:28:37 51°10.699 2°40.556 20.7746 0.072051 0.363195 -1.209513
2008-09-01 07:28:42 51°10.699 2°40.555 20.7751 0.072051 0.3632 -1.209513
2008-09-01 07:28:47 51°10.698 2°40.555 20.7765 0.072051 0.363212 -1.209513
2008-09-01 07:28:53 51°10.698 2°40.555 20.7773 0.072051 0.363212 -1.209513
2008-09-01 07:28:57 51°10.698 2°40.555 20.784 0.072051 0.363223 -1.209513
2008-09-01 07:29:02 51°10.697 2°40.555 20.7825 0.072051 0.363235 -1.209513
2008-09-01 07:29:07 51°10.697 2°40.555 20.7796 0.071948 0.3627 -1.209513
2008-09-01 07:29:13 51°10.696 2°40.554 20.7853 0.071948 0.362717 -1.209513
2008-09-01 07:29:17 51°10.696 2°40.554 20.7907 0.071948 0.362729 -1.209513
2008-09-01 07:29:22 51°10.696 2°40.554 20.7914 0.071948 0.362729 -1.209513
2008-09-01 07:29:27 51°10.695 2°40.554 20.7962 0.071948 0.362729 -1.209513
2008-09-01 07:29:33 51°10.695 2°40.555 20.7973 0.071948 0.362735 -1.209513
2008-09-01 07:29:37 51°10.694 2°40.555 20.7966 0.071948 0.362746 -1.209513
2008-09-01 07:29:42 51°10.694 2°40.554 20.7993 0.071948 0.362752 -1.209513
2008-09-01 07:29:48 51°10.694 2°40.554 20.7979 0.071948 0.362758 -1.209513
2008-09-01 07:29:53 51°10.693 2°40.554 20.7994 0.071948 0.362758 -1.209513
2008-09-01 07:29:57 51°10.693 2°40.554 20.8058 0.071948 0.362763 -1.209513
2008-09-01 07:30:03 51°10.693 2°40.554 20.8049 0.071948 0.362781 -1.174688
2008-09-01 07:30:08 51°10.693 2°40.554 20.8122 0.071948 0.362786 -1.209513
2008-09-01 07:30:13 51°10.692 2°40.554 20.8096 0.071948 0.362798 -1.209513
2008-09-01 07:30:17 51°10.692 2°40.554 20.8105 0.071948 0.362803 -1.209513
2008-09-01 07:30:22 51°10.692 2°40.554 20.8138 0.071948 0.362803 -1.209513
2008-09-01 07:30:27 51°10.691 2°40.554 20.8169 0.071948 0.362821 -1.209513
2008-09-01 07:30:33 51°10.691 2°40.554 20.821 0.071948 0.362826 -1.209513
2008-09-01 07:30:37 51°10.69 2°40.554 20.8245 0.071948 0.362844 -1.209513
2008-09-01 07:30:42 51°10.69 2°40.554 20.825 0.071948 0.362849 -1.209513
2008-09-01 07:30:47 51°10.689 2°40.554 20.8291 0.071948 0.362849 -1.209513
2008-09-01 07:30:53 51°10.689 2°40.554 20.8227 0.071948 0.362849 -1.209513
2008-09-01 07:30:57 51°10.689 2°40.554 20.8238 0.071948 0.362861 -1.209513
2008-09-01 07:31:02 51°10.688 2°40.553 20.826 0.071948 0.362867 -1.209513
2008-09-01 07:31:07 51°10.688 2°40.553 20.8266 0.071948 0.362872 -1.209513
2008-09-01 07:31:13 51°10.687 2°40.553 20.8282 0.071948 0.362878 -1.209513
2008-09-01 07:31:17 51°10.687 2°40.553 20.835 0.071948 0.36289 -1.209513
2008-09-01 07:31:22 51°10.686 2°40.553 20.8409 0.071948 0.36289 -1.209513
2008-09-01 07:31:27 51°10.686 2°40.553 20.8437 0.071948 0.362895 -1.209513
2008-09-01 07:31:33 51°10.685 2°40.552 20.8455 0.071948 0.362901 -1.209513
2008-09-01 07:31:37 51°10.685 2°40.553 20.8513 0.071948 0.362918 -1.209513
2008-09-01 07:31:42 51°10.685 2°40.553 20.8602 0.071948 0.362924 -1.209513
2008-09-01 07:31:47 51°10.687 2°40.553 20.854 0.071948 0.36293 -1.209513
2008-09-01 07:31:53 51°10.69 2°40.553 20.8461 0.071948 0.36293 -1.209513
2008-09-01 07:31:57 51°10.693 2°40.554 20.8426 0.071948 0.362936 -1.209513
2008-09-01 07:32:02 51°10.697 2°40.555 20.8458 0.071948 0.362941 -1.209513
2008-09-01 07:32:07 51°10.702 2°40.557 20.8471 0.071948 0.362953 -1.209513
2008-09-01 07:32:13 51°10.709 2°40.562 20.8457 0.071948 0.362959 -1.209513
2008-09-01 07:32:17 51°10.713 2°40.566 20.8383 0.071948 0.362964 -1.209513
2008-09-01 07:32:22 51°10.719 2°40.573 20.8519 0.071948 0.362964 -1.209513
2008-09-01 07:32:27 51°10.725 2°40.581 20.8679 0.071948 0.362987 -1.209513
2008-09-01 07:32:33 51°10.733 2°40.593 20.8575 0.071948 0.36301 -1.209513
2008-09-01 07:32:37 51°10.74 2°40.602 20.861 0.071948 0.363016 -1.209513
2008-09-01 07:32:42 51°10.748 2°40.614 20.8626 0.071948 0.363027 -1.209513
2008-09-01 07:32:48 51°10.759 2°40.629 20.8566 0.071948 0.363033 -1.209513
2008-09-01 07:32:53 51°10.769 2°40.642 20.8651 0.071948 0.363033 -1.209513
2008-09-01 07:32:57 51°10.777 2°40.653 20.8662 0.071948 0.363039 -1.209513
2008-09-01 07:33:02 51°10.788 2°40.667 20.8539 0.071948 0.363039 -1.209513
2008-09-01 07:33:07 51°10.8 2°40.681 20.8691 0.071948 0.363045 -1.209513
2008-09-01 07:33:13 51°10.812 2°40.7 20.8481 0.071948 0.363062 -1.209513
2008-09-01 07:33:17 51°10.821 2°40.711 20.8647 0.071948 0.363073 -1.209513
2008-09-01 07:33:22 51°10.832 2°40.727 20.8933 0.071948 0.363073 -1.209513
2008-09-01 07:33:27 51°10.843 2°40.743 20.8517 0.071948 0.363102 -1.209513
2008-09-01 07:33:32 51°10.855 2°40.757 20.8802 0.071948 0.363102 -1.174688
2008-09-01 07:33:37 51°10.866 2°40.774 20.8581 0.071948 0.363119 -1.209513
2008-09-01 07:33:42 51°10.877 2°40.789 20.8685 0.071948 0.363131 -1.174688
2008-09-01 07:33:47 51°10.888 2°40.805 20.8639 0.071948 0.363137 -1.209513
2008-09-01 07:33:52 51°10.899 2°40.821 20.8693 0.071948 0.363137 -1.209513
2008-09-01 07:33:57 51°10.911 2°40.838 20.8752 0.071948 0.363148 -1.209513
2008-09-01 07:34:02 51°10.921 2°40.855 20.8709 0.071948 0.36316 -1.209513
2008-09-01 07:34:07 51°10.931 2°40.872 20.8755 0.071948 0.363154 -1.174688
2008-09-01 07:34:13 51°10.944 2°40.893 20.8802 0.071948 0.363165 -1.209513
2008-09-01 07:34:18 51°10.954 2°40.911 20.8768 0.071948 0.363165 -1.209513
2008-09-01 07:34:23 51°10.964 2°40.929 20.8788 0.071948 0.363165 -1.209513
2008-09-01 07:34:28 51°10.974 2°40.947 20.8927 0.071948 0.36316 -1.209513
2008-09-01 07:34:34 51°10.985 2°40.969 20.8875 0.071948 0.363183 -1.209513
2008-09-01 07:34:38 51°10.994 2°40.982 20.893 0.071948 0.363171 -1.209513
2008-09-01 07:34:43 51°11.002 2°41.003 20.9036 0.071948 0.3632 -1.209513
2008-09-01 07:34:48 51°11.013 2°41.019 20.9019 0.071948 0.3632 -1.174688
2008-09-01 07:34:54 51°11.024 2°41.043 20.8975 0.071948 0.3632 -1.174688
2008-09-01 07:34:58 51°11.032 2°41.057 20.9785 0.071948 0.363206 -1.174688
2008-09-01 07:35:03 51°11.041 2°41.077 20.8571 0.071948 0.363235 -1.139864
2008-09-01 07:35:08 51°11.051 2°41.095 20.8035 0.071948 0.363229 -1.10504
2008-09-01 07:35:14 51°11.061 2°41.118 20.8338 0.071948 0.363246 -1.139864
2008-09-01 07:35:18 51°11.069 2°41.133 20.8128 0.071948 0.363252 -1.174688
2008-09-01 07:35:23 51°11.079 2°41.152 20.8447 0.071948 0.363252 -1.174688
2008-09-01 07:35:28 51°11.088 2°41.172 20.8364 0.071948 0.363246 -1.174688
2008-09-01 07:35:34 51°11.099 2°41.194 20.848 0.071948 0.363258 -1.174688
2008-09-01 07:35:38 51°11.106 2°41.21 20.8775 0.071948 0.363275 -1.174688
2008-09-01 07:35:43 51°11.116 2°41.228 20.8301 0.071948 0.363263 -1.209513
2008-09-01 07:35:48 51°11.124 2°41.248 20.8309 0.071948 0.363304 -1.209513
2008-09-01 07:35:53 51°11.135 2°41.266 20.8949 0.071948 0.363304 -1.209513
2008-09-01 07:35:58 51°11.144 2°41.285 20.8137 0.071948 0.363292 -1.244337
2008-09-01 07:36:03 51°11.153 2°41.305 20.891 0.071948 0.363321 -1.209513
2008-09-01 07:36:08 51°11.163 2°41.322 20.8573 0.071948 0.363321 -1.209513
2008-09-01 07:36:14 51°11.174 2°41.346 20.9212 0.071845 0.362791 -1.209513
2008-09-01 07:36:18 51°11.182 2°41.359 22.8053 0.071845 0.362808 -1.209513
2008-09-01 07:36:23 51°11.189 2°41.381 20.8871 0.071845 0.362808 -1.209513
2008-09-01 07:36:28 51°11.201 2°41.398 20.8337 0.071845 0.362814 -1.209513
2008-09-01 07:36:34 51°11.211 2°41.422 20.8532 0.071948 0.363378 -1.209513
2008-09-01 07:36:38 51°11.219 2°41.435 20.9092 0.071845 0.362837 -1.209513
2008-09-01 07:36:43 51°11.228 2°41.455 20.8694 0.071845 0.362826 -1.209513
2008-09-01 07:36:49 51°11.24 2°41.476 20.8594 0.071845 0.362826 -1.209513
2008-09-01 07:36:54 51°11.249 2°41.496 20.8891 0.071845 0.362826 -1.209513
2008-09-01 07:36:58 51°11.257 2°41.51 20.8694 0.071845 0.36282 -1.209513
2008-09-01 07:37:03 51°11.265 2°41.53 20.8547 0.071845 0.36282 -1.209513
2008-09-01 07:37:09 51°11.277 2°41.551 20.9002 0.071845 0.36282 -1.209513
2008-09-01 07:37:14 51°11.286 2°41.571 20.8666 0.071845 0.362826 -1.209513
2008-09-01 07:37:18 51°11.294 2°41.585 20.8812 0.071845 0.362826 -1.209513
2008-09-01 07:37:23 51°11.303 2°41.605 20.8574 0.071845 0.362826 -1.209513
2008-09-01 07:37:28 51°11.312 2°41.624 20.9055 0.071845 0.362849 -1.209513
2008-09-01 07:37:34 51°11.323 2°41.647 20.8549 0.071845 0.362843 -1.209513
2008-09-01 07:37:38 51°11.331 2°41.662 20.883 0.071845 0.362872 -1.209513
2008-09-01 07:37:43 51°11.34 2°41.682 20.8921 0.071845 0.362866 -1.209513
2008-09-01 07:37:48 51°11.35 2°41.701 20.8554 0.071845 0.362877 -1.209513
2008-09-01 07:37:54 51°11.361 2°41.724 20.8912 0.071845 0.362877 -1.209513
2008-09-01 07:37:58 51°11.369 2°41.739 20.8746 0.071845 0.362877 -1.209513
2008-09-01 07:38:03 51°11.378 2°41.759 20.8827 0.071845 0.362883 -1.209513
2008-09-01 07:38:08 51°11.387 2°41.778 20.8751 0.071845 0.362889 -1.209513
2008-09-01 07:38:14 51°11.398 2°41.802 20.9171 0.071845 0.362895 -1.209513
2008-09-01 07:38:19 51°11.408 2°41.821 20.8696 0.071845 0.362895 -1.209513
2008-09-01 07:38:23 51°11.415 2°41.838 20.8982 0.071845 0.362895 -1.209513
2008-09-01 07:38:29 51°11.427 2°41.861 20.8828 0.071845 0.362912 -1.209513
2008-09-01 07:38:34 51°11.436 2°41.88 20.8761 0.071845 0.362912 -1.209513
2008-09-01 07:38:38 51°11.443 2°41.896 20.8607 0.071845 0.362929 -1.209513
2008-09-01 07:38:44 51°11.455 2°41.919 20.9294 0.071845 0.362935 -1.209513
2008-09-01 07:38:49 51°11.464 2°41.938 20.8871 0.071845 0.362946 -1.209513
2008-09-01 07:38:54 51°11.473 2°41.958 20.9005 0.071845 0.362946 -1.209513
2008-09-01 07:38:58 51°11.481 2°41.974 20.9074 0.071845 0.362952 -1.209513
2008-09-01 07:39:03 51°11.49 2°41.993 20.8576 0.071845 0.362952 -1.244337
2008-09-01 07:39:09 51°11.502 2°42.017 20.9184 0.071845 0.362964 -1.209513
2008-09-01 07:39:14 51°11.51 2°42.037 20.866 0.071845 0.362981 -1.209513
2008-09-01 07:39:18 51°11.518 2°42.052 20.9189 0.071845 0.362981 -1.209513
2008-09-01 07:39:23 51°11.528 2°42.071 20.8936 0.071845 0.362981 -1.209513
2008-09-01 07:39:29 51°11.539 2°42.095 20.8918 0.071845 0.362993 -1.209513
2008-09-01 07:39:34 51°11.549 2°42.114 20.9327 0.071845 0.363004 -1.209513
2008-09-01 07:39:39 51°11.559 2°42.134 20.8738 0.071845 0.362998 -1.209513
2008-09-01 07:39:43 51°11.566 2°42.15 20.9088 0.071845 0.363016 -1.209513
2008-09-01 07:39:49 51°11.578 2°42.173 20.8988 0.071845 0.363004 -1.209513
2008-09-01 07:39:54 51°11.586 2°42.194 20.874 0.071845 0.363004 -1.209513
2008-09-01 07:39:59 51°11.597 2°42.212 20.9361 0.071845 0.363033 -1.209513
2008-09-01 07:40:04 51°11.606 2°42.231 20.8853 0.071845 0.36301 -1.244337
2008-09-01 07:40:09 51°11.615 2°42.252 20.9064 0.071845 0.36305 -1.209513
2008-09-01 07:40:14 51°11.626 2°42.27 20.9193 0.071845 0.363039 -1.209513
2008-09-01 07:40:19 51°11.634 2°42.29 20.8854 0.071845 0.363056 -1.209513
2008-09-01 07:40:24 51°11.643 2°42.309 20.9097 0.071845 0.363056 -1.209513
2008-09-01 07:40:29 51°11.652 2°42.329 20.8956 0.071845 0.363056 -1.209513
2008-09-01 07:40:34 51°11.662 2°42.348 20.915 0.071845 0.363056 -1.209513
2008-09-01 07:40:38 51°11.669 2°42.364 20.9042 0.071845 0.363062 -1.244337
2008-09-01 07:40:44 51°11.68 2°42.387 20.9297 0.071845 0.363062 -1.209513
2008-09-01 07:40:49 51°11.689 2°42.406 20.9082 0.071845 0.363062 -1.209513
2008-09-01 07:40:54 51°11.698 2°42.426 20.9238 0.071845 0.363062 -1.209513
2008-09-01 07:40:58 51°11.706 2°42.44 20.9106 0.071845 0.363073 -1.244337
2008-09-01 07:41:04 51°11.717 2°42.464 20.9313 0.071845 0.363085 -1.244337
2008-09-01 07:41:09 51°11.728 2°42.482 20.9205 0.071845 0.363079 -1.244337
2008-09-01 07:41:14 51°11.735 2°42.503 20.9008 0.071845 0.363119 -1.209513
2008-09-01 07:41:19 51°11.746 2°42.52 20.9496 0.071845 0.363108 -1.244337
2008-09-01 07:41:23 51°11.754 2°42.536 20.9121 0.071845 0.363108 -1.244337
2008-09-01 07:41:29 51°11.765 2°42.558 20.9235 0.071845 0.363137 -1.244337
2008-09-01 07:41:34 51°11.775 2°42.577 20.9058 0.071845 0.363137 -1.209513
2008-09-01 07:41:39 51°11.785 2°42.596 20.9114 0.071845 0.363142 -1.209513
2008-09-01 07:41:44 51°11.795 2°42.614 20.9248 0.071845 0.363142 -1.209513
2008-09-01 07:41:49 51°11.805 2°42.633 20.9248 0.071845 0.363148 -1.209513
2008-09-01 07:41:54 51°11.815 2°42.652 20.9135 0.071845 0.363148 -1.209513
2008-09-01 07:41:59 51°11.824 2°42.671 20.9124 0.071845 0.363142 -1.244337
2008-09-01 07:42:04 51°11.834 2°42.689 20.9335 0.071845 0.363154 -1.209513
2008-09-01 07:42:09 51°11.844 2°42.707 20.9363 0.071845 0.363142 -1.209513
2008-09-01 07:42:14 51°11.853 2°42.726 20.9111 0.071845 0.36316 -1.174688
2008-09-01 07:42:19 51°11.863 2°42.744 20.9604 0.071845 0.36316 -1.244337
2008-09-01 07:42:24 51°11.874 2°42.762 20.8875 0.071845 0.36316 -1.244337
2008-09-01 07:42:29 51°11.883 2°42.781 20.9588 0.071845 0.3632 -1.209513
2008-09-01 07:42:34 51°11.894 2°42.798 20.8973 0.071845 0.363194 -1.244337
2008-09-01 07:42:39 51°11.903 2°42.817 20.9375 0.071845 0.363229 -1.209513
2008-09-01 07:42:44 51°11.913 2°42.835 20.9285 0.071845 0.363229 -1.244337
2008-09-01 07:42:49 51°11.923 2°42.852 20.9328 0.071845 0.363229 -1.209513
2008-09-01 07:42:54 51°11.933 2°42.871 20.9227 0.071845 0.363229 -1.209513
2008-09-01 07:42:59 51°11.943 2°42.889 20.9391 0.071845 0.363229 -1.209513
2008-09-01 07:43:04 51°11.953 2°42.907 20.924 0.071845 0.363223 -1.244337
2008-09-01 07:43:09 51°11.963 2°42.925 20.9535 0.071845 0.363235 -1.244337
2008-09-01 07:43:14 51°11.973 2°42.942 20.9385 0.071845 0.363223 -1.209513
2008-09-01 07:43:19 51°11.982 2°42.962 20.944 0.071845 0.363229 -1.209513
2008-09-01 07:43:24 51°11.994 2°42.978 20.9281 0.071845 0.363229 -1.209513
2008-09-01 07:43:29 51°12.002 2°42.998 20.9446 0.071845 0.36324 -1.244337
2008-09-01 07:43:34 51°12.014 2°43.015 20.9452 0.071845 0.363246 -1.244337
2008-09-01 07:43:39 51°12.022 2°43.035 20.9525 0.071845 0.363258 -1.244337
2008-09-01 07:43:44 51°12.033 2°43.052 20.9348 0.071845 0.363263 -1.244337
2008-09-01 07:43:49 51°12.041 2°43.073 20.9548 0.071845 0.363281 -1.244337
2008-09-01 07:43:54 51°12.053 2°43.089 20.93 0.071845 0.363281 -1.244337
2008-09-01 07:43:59 51°12.061 2°43.11 20.9154 0.071845 0.363281 -1.174688
2008-09-01 07:44:04 51°12.072 2°43.126 20.9833 0.071845 0.363304 -1.244337
2008-09-01 07:44:09 51°12.081 2°43.145 20.9072 0.071845 0.363298 -1.244337
2008-09-01 07:44:14 51°12.09 2°43.164 20.9657 0.071845 0.363327 -1.209513
2008-09-01 07:44:19 51°12.101 2°43.181 20.9572 0.071845 0.363315 -1.244337
2008-09-01 07:44:24 51°12.109 2°43.201 20.9286 0.071845 0.363315 -1.244337
2008-09-01 07:44:29 51°12.12 2°43.218 20.9619 0.071845 0.363333 -1.209513
2008-09-01 07:44:34 51°12.128 2°43.238 20.9063 0.071845 0.363321 -1.244337